| time (UTC) | temp F | wind direction | speed MPH | gust MPH | rain 1hr in | rain 24hr in | rain mn in | humidity % | barometer mb |
| 20260507193157 | 41 | 142 | 5.0 | 17.0 | 0.00 | 0.14 | 0.01 | 59 | 1011.9 |
| 20260507193056 | 41 | 119 | 10.0 | 17.0 | 0.00 | 0.14 | 0.01 | 59 | 1011.8 |
| 20260507192958 | 41 | 121 | 7.0 | 17.0 | 0.00 | 0.14 | 0.01 | 59 | 1011.9 |
| 20260507192856 | 41 | 150 | 11.0 | 17.0 | 0.00 | 0.14 | 0.01 | 60 | 1011.9 |
| 20260507192756 | 41 | 94 | 3.0 | 17.0 | 0.00 | 0.14 | 0.01 | 59 | 1011.9 |
| 20260507192658 | 41 | 123 | 10.0 | 17.0 | 0.00 | 0.14 | 0.01 | 60 | 1011.9 |
| 20260507192556 | 41 | 171 | 7.0 | 17.0 | 0.00 | 0.14 | 0.01 | 61 | 1011.8 |
| 20260507192357 | 41 | 130 | 5.0 | 17.0 | 0.00 | 0.14 | 0.01 | 59 | 1011.9 |
| 20260507192257 | 41 | 151 | 9.0 | 16.0 | 0.00 | 0.14 | 0.01 | 60 | 1011.9 |
| 20260507192157 | 41 | 134 | 4.0 | 15.0 | 0.00 | 0.14 | 0.01 | 60 | 1011.9 |
| 20260507192056 | 41 | 103 | 6.0 | 15.0 | 0.00 | 0.14 | 0.01 | 60 | 1011.9 |
| 20260507192000 | 41 | 115 | 11.0 | 15.0 | 0.00 | 0.14 | 0.01 | 61 | 1011.9 |
| 20260507191856 | 41 | 153 | 3.0 | 15.0 | 0.00 | 0.14 | 0.01 | 60 | 1011.9 |
| 20260507191757 | 41 | 107 | 10.0 | 15.0 | 0.00 | 0.14 | 0.01 | 60 | 1011.9 |
| 20260507191657 | 41 | 128 | 8.0 | 15.0 | 0.00 | 0.14 | 0.01 | 61 | 1011.8 |
| 20260507191458 | 41 | 109 | 6.0 | 15.0 | 0.00 | 0.14 | 0.01 | 62 | 1011.9 |
| 20260507191356 | 41 | 140 | 4.0 | 15.0 | 0.00 | 0.14 | 0.01 | 62 | 1011.9 |
| 20260507191257 | 41 | 154 | 9.0 | 14.0 | 0.00 | 0.14 | 0.01 | 62 | 1011.9 |
| 20260507191157 | 41 | 96 | 11.0 | 13.0 | 0.00 | 0.14 | 0.01 | 61 | 1011.9 |
| 20260507191057 | 41 | 125 | 9.0 | 13.0 | 0.00 | 0.14 | 0.01 | 62 | 1011.9 |
| 20260507190857 | 40 | 160 | 6.0 | 14.0 | 0.00 | 0.14 | 0.01 | 62 | 1011.9 |
| 20260507190756 | 40 | 133 | 8.0 | 14.0 | 0.00 | 0.14 | 0.01 | 63 | 1011.9 |
| 20260507190657 | 40 | 121 | 5.0 | 14.0 | 0.00 | 0.14 | 0.01 | 62 | 1011.9 |
| 20260507190556 | 40 | 128 | 5.0 | 14.0 | 0.00 | 0.14 | 0.01 | 63 | 1012.0 |
| 20260507190458 | 40 | 138 | 7.0 | 14.0 | 0.00 | 0.14 | 0.01 | 62 | 1011.9 |
| 20260507190356 | 40 | 117 | 9.0 | 14.0 | 0.00 | 0.14 | 0.01 | 62 | 1012.0 |
| 20260507190257 | 40 | 147 | 6.0 | 14.0 | 0.00 | 0.14 | 0.01 | 62 | 1012.0 |
| 20260507190156 | 40 | 107 | 4.0 | 14.0 | 0.00 | 0.14 | 0.01 | 62 | 1012.1 |
| 20260507190057 | 40 | 134 | 7.0 | 14.0 | 0.00 | 0.14 | 0.01 | 62 | 1012.1 |
| 20260507185757 | 40 | 137 | 4.0 | 15.0 | 0.00 | 0.14 | 0.01 | 62 | 1012.1 |
| 20260507185656 | 40 | 121 | 9.0 | 16.0 | 0.00 | 0.14 | 0.01 | 62 | 1012.1 |
| 20260507185556 | 40 | 144 | 10.0 | 16.0 | 0.00 | 0.14 | 0.01 | 62 | 1012.1 |
| 20260507185457 | 40 | 140 | 10.0 | 16.0 | 0.00 | 0.14 | 0.01 | 62 | 1012.1 |
| 20260507185356 | 40 | 104 | 3.0 | 16.0 | 0.00 | 0.14 | 0.01 | 62 | 1012.1 |
| 20260507185057 | 40 | 150 | 8.0 | 16.0 | 0.00 | 0.14 | 0.01 | 60 | 1012.2 |
| 20260507184958 | 40 | 120 | 9.0 | 16.0 | 0.00 | 0.14 | 0.01 | 60 | 1012.1 |
| 20260507184856 | 41 | 137 | 13.0 | 16.0 | 0.00 | 0.14 | 0.01 | 60 | 1012.2 |
| 20260507184757 | 41 | 144 | 5.0 | 14.0 | 0.00 | 0.14 | 0.01 | 60 | 1012.2 |
| 20260507184657 | 41 | 134 | 2.0 | 14.0 | 0.00 | 0.14 | 0.01 | 61 | 1012.1 |
| 20260507184557 | 40 | 126 | 5.0 | 14.0 | 0.00 | 0.14 | 0.01 | 61 | 1012.2 |
| 20260507184458 | 40 | 121 | 7.0 | 14.0 | 0.00 | 0.14 | 0.01 | 61 | 1012.2 |
| 20260507184156 | 40 | 168 | 5.0 | 21.0 | 0.00 | 0.14 | 0.01 | 60 | 1012.1 |
| 20260507184058 | 40 | 151 | 10.0 | 21.0 | 0.00 | 0.14 | 0.01 | 60 | 1012.2 |
| 20260507183959 | 40 | 137 | 14.0 | 21.0 | 0.00 | 0.14 | 0.01 | 61 | 1012.2 |
| 20260507183756 | 40 | 140 | 5.0 | 21.0 | 0.00 | 0.14 | 0.01 | 62 | 1012.2 |
| 20260507183656 | 40 | 130 | 7.0 | 21.0 | 0.00 | 0.14 | 0.01 | 61 | 1012.2 |
| 20260507183458 | 40 | 152 | 14.0 | 21.0 | 0.00 | 0.14 | 0.01 | 61 | 1012.2 |
| 20260507183356 | 40 | 134 | 8.0 | 16.0 | 0.00 | 0.14 | 0.01 | 61 | 1012.2 |
| 20260507183156 | 40 | 184 | 6.0 | 16.0 | 0.00 | 0.14 | 0.01 | 60 | 1012.2 |
| 20260507183056 | 40 | 145 | 5.0 | 12.0 | 0.00 | 0.14 | 0.01 | 61 | 1012.2 |
| 20260507182857 | 40 | 119 | 5.0 | 12.0 | 0.00 | 0.14 | 0.01 | 61 | 1012.2 |
| 20260507182757 | 40 | 149 | 5.0 | 12.0 | 0.00 | 0.14 | 0.01 | 61 | 1012.2 |
| 20260507182656 | 40 | 169 | 6.0 | 12.0 | 0.00 | 0.14 | 0.01 | 60 | 1012.2 |
| 20260507182556 | 40 | 201 | 7.0 | 12.0 | 0.00 | 0.14 | 0.01 | 60 | 1012.2 |
| 20260507182357 | 40 | 175 | 9.0 | 12.0 | 0.00 | 0.14 | 0.01 | 60 | 1012.2 |
| 20260507182256 | 41 | 165 | 12.0 | 12.0 | 0.00 | 0.14 | 0.01 | 61 | 1012.2 |
| 20260507182156 | 41 | 141 | 5.0 | 10.0 | 0.00 | 0.14 | 0.01 | 61 | 1012.2 |
| 20260507182057 | 41 | 189 | 4.0 | 10.0 | 0.00 | 0.14 | 0.01 | 61 | 1012.2 |
| 20260507181857 | 41 | 123 | 9.0 | 10.0 | 0.00 | 0.14 | 0.01 | 61 | 1012.2 |
| 20260507181757 | 41 | 117 | 7.0 | 10.0 | 0.00 | 0.14 | 0.01 | 61 | 1012.2 |
| 20260507181656 | 41 | 123 | 4.0 | 11.0 | 0.00 | 0.14 | 0.01 | 61 | 1012.2 |
| 20260507181556 | 41 | 149 | 4.0 | 12.0 | 0.00 | 0.14 | 0.01 | 61 | 1012.2 |
| 20260507181357 | 41 | 111 | 6.0 | 12.0 | 0.00 | 0.14 | 0.01 | 61 | 1012.2 |
| 20260507181257 | 41 | 147 | 2.0 | 12.0 | 0.00 | 0.14 | 0.01 | 62 | 1012.2 |
| 20260507181157 | 41 | 144 | 3.0 | 12.0 | 0.00 | 0.14 | 0.01 | 61 | 1012.2 |
| 20260507181057 | 41 | 117 | 4.0 | 13.0 | 0.00 | 0.14 | 0.01 | 61 | 1012.1 |
| 20260507180858 | 41 | 160 | 4.0 | 13.0 | 0.00 | 0.14 | 0.01 | 60 | 1012.1 |
| 20260507180757 | 41 | 104 | 7.0 | 13.0 | 0.00 | 0.14 | 0.01 | 60 | 1012.1 |
| 20260507180657 | 41 | 134 | 8.0 | 13.0 | 0.00 | 0.14 | 0.01 | 59 | 1012.1 |
| 20260507180458 | 41 | 184 | 3.0 | 14.0 | 0.00 | 0.14 | 0.01 | 59 | 1012.1 |
| 20260507180356 | 41 | 146 | 8.0 | 16.0 | 0.00 | 0.14 | 0.01 | 60 | 1012.2 |
| 20260507180256 | 41 | 121 | 8.0 | 16.0 | 0.00 | 0.14 | 0.01 | 60 | 1012.1 |
| 20260507180157 | 41 | 164 | 4.0 | 16.0 | 0.00 | 0.14 | 0.01 | 59 | 1012.1 |
| 20260507180056 | 41 | 158 | 8.0 | 16.0 | 0.00 | 0.14 | 0.01 | 59 | 1012.1 |
| 20260507180001 | 41 | 123 | 9.0 | 16.0 | 0.00 | 0.14 | 0.01 | 60 | 1012.1 |
| 20260507175856 | 41 | 128 | 9.0 | 16.0 | 0.00 | 0.14 | 0.01 | 60 | 1012.1 |
| 20260507175756 | 41 | 132 | 5.0 | 16.0 | 0.00 | 0.14 | 0.01 | 59 | 1012.1 |
| 20260507175556 | 41 | 132 | 14.0 | 16.0 | 0.00 | 0.14 | 0.01 | 60 | 1012.1 |
| 20260507175459 | 41 | 141 | 11.0 | 15.0 | 0.00 | 0.14 | 0.01 | 59 | 1012.1 |
| 20260507175356 | 41 | 175 | 6.0 | 15.0 | 0.00 | 0.14 | 0.01 | 60 | 1012.1 |
| 20260507175258 | 41 | 147 | 10.0 | 15.0 | 0.00 | 0.14 | 0.01 | 61 | 1012.1 |
| 20260507175156 | 41 | 150 | 1.0 | 15.0 | 0.00 | 0.14 | 0.01 | 61 | 1012.0 |
| 20260507175056 | 41 | 173 | 2.0 | 15.0 | 0.00 | 0.14 | 0.01 | 61 | 1012.0 |
| 20260507174958 | 41 | 169 | 4.0 | 17.0 | 0.00 | 0.14 | 0.01 | 61 | 1012.0 |
| 20260507174857 | 41 | 103 | 13.0 | 17.0 | 0.00 | 0.14 | 0.01 | 60 | 1012.0 |
| 20260507174757 | 41 | 113 | 9.0 | 17.0 | 0.00 | 0.14 | 0.01 | 61 | 1012.1 |
| 20260507174656 | 41 | 132 | 4.0 | 17.0 | 0.00 | 0.14 | 0.01 | 61 | 1012.1 |
| 20260507174558 | 41 | 119 | 4.0 | 17.0 | 0.00 | 0.14 | 0.01 | 60 | 1012.1 |
| 20260507174459 | 41 | 108 | 12.0 | 17.0 | 0.00 | 0.14 | 0.01 | 60 | 1012.0 |
| 20260507174156 | 41 | 114 | 7.0 | 17.0 | 0.00 | 0.14 | 0.01 | 59 | 1012.1 |
| 20260507173958 | 41 | 117 | 2.0 | 16.0 | 0.00 | 0.14 | 0.01 | 61 | 1012.0 |
| 20260507173857 | 41 | 177 | 3.0 | 16.0 | 0.00 | 0.14 | 0.01 | 60 | 1012.0 |
| 20260507173757 | 41 | 150 | 6.0 | 16.0 | 0.00 | 0.14 | 0.01 | 59 | 1012.1 |
| 20260507173458 | 41 | 149 | 4.0 | 16.0 | 0.00 | 0.14 | 0.01 | 60 | 1012.0 |
| 20260507173257 | 41 | 155 | 7.0 | 12.0 | 0.00 | 0.14 | 0.01 | 59 | 1012.0 |
| 20260507173157 | 41 | 121 | 12.0 | 12.0 | 0.00 | 0.14 | 0.01 | 60 | 1012.0 |
| 20260507173056 | 41 | 126 | 8.0 | 12.0 | 0.00 | 0.14 | 0.01 | 60 | 1012.0 |
| 20260507172957 | 41 | 108 | 4.0 | 12.0 | 0.00 | 0.14 | 0.01 | 59 | 1012.0 |
| 20260507172857 | 41 | 157 | 11.0 | 13.0 | 0.00 | 0.14 | 0.01 | 58 | 1011.9 |
| 20260507172657 | 41 | 131 | 2.0 | 10.0 | 0.00 | 0.14 | 0.01 | 58 | 1012.0 |
| 20260507172459 | 41 | 154 | 3.0 | 10.0 | 0.00 | 0.14 | 0.01 | 59 | 1011.9 |
| 20260507172356 | 41 | 118 | 9.0 | 10.0 | 0.00 | 0.14 | 0.01 | 59 | 1011.9 |
| 20260507172257 | 41 | 127 | 3.0 | 11.0 | 0.00 | 0.14 | 0.01 | 60 | 1012.0 |
| 20260507172157 | 41 | 120 | 8.0 | 14.0 | 0.00 | 0.14 | 0.01 | 60 | 1011.9 |
| 20260507172056 | 41 | 130 | 1.0 | 14.0 | 0.00 | 0.14 | 0.01 | 60 | 1012.0 |
| 20260507171857 | 41 | 149 | 1.0 | 14.0 | 0.00 | 0.14 | 0.01 | 59 | 1011.9 |
| 20260507171756 | 41 | 149 | 4.0 | 14.0 | 0.00 | 0.14 | 0.01 | 59 | 1011.9 |
| 20260507171656 | 41 | 194 | 5.0 | 14.0 | 0.00 | 0.14 | 0.01 | 59 | 1011.9 |
| 20260507171458 | 41 | 103 | 2.0 | 14.0 | 0.00 | 0.14 | 0.01 | 60 | 1011.9 |
| 20260507171356 | 41 | 126 | 8.0 | 14.0 | 0.00 | 0.14 | 0.01 | 59 | 1011.9 |
| 20260507171156 | 41 | 160 | 4.0 | 12.0 | 0.00 | 0.14 | 0.01 | 59 | 1011.9 |
| 20260507171057 | 41 | 140 | 7.0 | 12.0 | 0.00 | 0.14 | 0.01 | 59 | 1011.9 |
| 20260507170959 | 41 | 139 | 5.0 | 12.0 | 0.00 | 0.14 | 0.01 | 60 | 1012.0 |
| 20260507170856 | 41 | 119 | 7.0 | 12.0 | 0.00 | 0.14 | 0.01 | 60 | 1011.9 |
| 20260507170556 | 41 | 154 | 3.0 | 9.0 | 0.00 | 0.14 | 0.01 | 63 | 1012.1 |
| 20260507170459 | 41 | 161 | 9.0 | 16.0 | 0.00 | 0.14 | 0.01 | 61 | 1011.9 |
| 20260507170356 | 41 | 98 | 4.0 | 17.0 | 0.00 | 0.14 | 0.01 | 60 | 1012.0 |
| 20260507170257 | 41 | 133 | 3.0 | 17.0 | 0.00 | 0.14 | 0.01 | 61 | 1012.1 |
| 20260507170156 | 41 | 109 | 7.0 | 17.0 | 0.00 | 0.14 | 0.01 | 62 | 1012.1 |
| 20260507170057 | 41 | 135 | 5.0 | 17.0 | 0.00 | 0.14 | 0.01 | 64 | 1012.1 |
| 20260507165958 | 40 | 140 | 4.0 | 17.0 | 0.00 | 0.14 | 0.01 | 62 | 1012.1 |
| 20260507165756 | 40 | 161 | 5.0 | 17.0 | 0.00 | 0.14 | 0.01 | 62 | 1012.1 |
| 20260507165657 | 41 | 157 | 5.0 | 17.0 | 0.00 | 0.14 | 0.01 | 61 | 1012.1 |
| 20260507165556 | 40 | 146 | 15.0 | 17.0 | 0.00 | 0.14 | 0.01 | 62 | 1012.1 |
| 20260507165458 | 40 | 121 | 8.0 | 15.0 | 0.00 | 0.14 | 0.01 | 62 | 1012.1 |
| 20260507165256 | 40 | 134 | 3.0 | 10.0 | 0.00 | 0.14 | 0.01 | 63 | 1012.1 |
| 20260507165156 | 40 | 150 | 3.0 | 10.0 | 0.00 | 0.14 | 0.01 | 65 | 1012.1 |
| 20260507165056 | 40 | 169 | 5.0 | 10.0 | 0.00 | 0.14 | 0.01 | 64 | 1012.1 |
| 20260507164959 | 40 | 116 | 4.0 | 10.0 | 0.00 | 0.14 | 0.01 | 64 | 1012.1 |
| 20260507164756 | 40 | 150 | 6.0 | 10.0 | 0.01 | 0.14 | 0.01 | 64 | 1012.1 |
| 20260507164656 | 40 | 118 | 7.0 | 10.0 | 0.01 | 0.14 | 0.01 | 64 | 1012.1 |
| 20260507164556 | 40 | 166 | 6.0 | 8.0 | 0.01 | 0.14 | 0.01 | 66 | 1012.1 |
| 20260507164458 | 40 | 175 | 2.0 | 8.0 | 0.01 | 0.14 | 0.01 | 64 | 1012.1 |
| 20260507164357 | 39 | 176 | 4.0 | 8.0 | 0.01 | 0.14 | 0.01 | 64 | 1012.2 |
| 20260507164257 | 39 | 182 | 4.0 | 8.0 | 0.01 | 0.14 | 0.01 | 65 | 1012.1 |
| 20260507164156 | 40 | 175 | 6.0 | 8.0 | 0.01 | 0.14 | 0.01 | 67 | 1012.1 |
| 20260507164057 | 39 | 186 | 3.0 | 9.0 | 0.01 | 0.14 | 0.01 | 66 | 1012.2 |
| 20260507163959 | 39 | 146 | 4.0 | 9.0 | 0.01 | 0.14 | 0.01 | 66 | 1012.2 |
| 20260507163857 | 39 | 169 | 4.0 | 9.0 | 0.01 | 0.14 | 0.01 | 66 | 1012.2 |
| 20260507163757 | 39 | 184 | 6.0 | 9.0 | 0.01 | 0.14 | 0.01 | 65 | 1012.2 |
| 20260507163656 | 39 | 159 | 4.0 | 9.0 | 0.01 | 0.14 | 0.01 | 65 | 1012.1 |
| 20260507163556 | 39 | 165 | 4.0 | 9.0 | 0.01 | 0.14 | 0.01 | 64 | 1012.2 |
| 20260507163458 | 39 | 169 | 5.0 | 9.0 | 0.01 | 0.14 | 0.01 | 66 | 1012.2 |
| 20260507163356 | 39 | 169 | 5.0 | 9.0 | 0.01 | 0.14 | 0.01 | 66 | 1012.2 |
| 20260507163257 | 39 | 181 | 4.0 | 9.0 | 0.01 | 0.14 | 0.01 | 66 | 1012.2 |
| 20260507163157 | 39 | 163 | 2.0 | 8.0 | 0.01 | 0.14 | 0.01 | 68 | 1012.2 |
| 20260507163056 | 39 | 210 | 1.0 | 8.0 | 0.01 | 0.14 | 0.01 | 66 | 1012.2 |
| 20260507162856 | 39 | 166 | 4.0 | 7.0 | 0.01 | 0.14 | 0.01 | 67 | 1012.2 |
| 20260507162757 | 39 | 147 | 3.0 | 6.0 | 0.01 | 0.14 | 0.01 | 68 | 1012.2 |
| 20260507162657 | 39 | 167 | 1.0 | 6.0 | 0.01 | 0.14 | 0.01 | 67 | 1012.2 |
| 20260507162458 | 39 | 336 | 1.0 | 6.0 | 0.01 | 0.14 | 0.01 | 68 | 1012.2 |
| 20260507162357 | 39 | 186 | 4.0 | 6.0 | 0.01 | 0.14 | 0.01 | 68 | 1012.2 |
| 20260507162256 | 39 | 167 | 4.0 | 7.0 | 0.01 | 0.14 | 0.01 | 69 | 1012.2 |
| 20260507162157 | 39 | 167 | 3.0 | 7.0 | 0.01 | 0.14 | 0.01 | 69 | 1012.2 |
| 20260507161856 | 39 | 176 | 2.0 | 11.0 | 0.01 | 0.14 | 0.01 | 69 | 1012.2 |
| 20260507161758 | 39 | 151 | 4.0 | 11.0 | 0.01 | 0.14 | 0.01 | 70 | 1012.1 |
| 20260507161656 | 39 | 161 | 2.0 | 11.0 | 0.01 | 0.14 | 0.01 | 69 | 1012.1 |
| 20260507161558 | 39 | 168 | 4.0 | 11.0 | 0.01 | 0.14 | 0.01 | 71 | 1012.2 |
| 20260507161458 | 39 | 168 | 4.0 | 11.0 | 0.01 | 0.14 | 0.01 | 70 | 1012.2 |
| 20260507161157 | 39 | 171 | 6.0 | 11.0 | 0.01 | 0.14 | 0.01 | 70 | 1012.2 |
| 20260507161056 | 38 | 165 | 7.0 | 11.0 | 0.01 | 0.14 | 0.01 | 70 | 1012.1 |
| 20260507160958 | 38 | 171 | 4.0 | 7.0 | 0.01 | 0.14 | 0.01 | 72 | 1012.1 |
| 20260507160756 | 38 | 178 | 3.0 | 7.0 | 0.01 | 0.14 | 0.01 | 71 | 1012.1 |
| 20260507160657 | 38 | 181 | 2.0 | 7.0 | 0.01 | 0.14 | 0.01 | 71 | 1012.1 |
| 20260507160556 | 38 | 178 | 3.0 | 7.0 | 0.01 | 0.14 | 0.01 | 71 | 1012.1 |
| 20260507160458 | 38 | 165 | 5.0 | 7.0 | 0.01 | 0.14 | 0.01 | 71 | 1012.1 |
| 20260507160358 | 38 | 145 | 2.0 | 7.0 | 0.01 | 0.14 | 0.01 | 72 | 1012.2 |
| 20260507160256 | 38 | 145 | 2.0 | 7.0 | 0.01 | 0.14 | 0.01 | 71 | 1012.1 |
| 20260507160157 | 39 | 144 | 2.0 | 7.0 | 0.01 | 0.14 | 0.01 | 72 | 1012.1 |
| 20260507160057 | 38 | 165 | 2.0 | 7.0 | 0.01 | 0.14 | 0.01 | 71 | 1012.1 |
| 20260507160000 | 38 | 165 | 4.0 | 7.0 | 0.01 | 0.14 | 0.01 | 71 | 1012.1 |
| 20260507155856 | 38 | 165 | 2.0 | 7.0 | 0.01 | 0.14 | 0.01 | 70 | 1012.1 |
| 20260507155758 | 38 | 165 | 5.0 | 7.0 | 0.01 | 0.14 | 0.01 | 70 | 1012.1 |
| 20260507155657 | 38 | 179 | 4.0 | 8.0 | 0.01 | 0.14 | 0.01 | 70 | 1012.1 |
| 20260507155556 | 38 | 163 | 6.0 | 9.0 | 0.01 | 0.14 | 0.01 | 71 | 1012.1 |
| 20260507155358 | 38 | 159 | 4.0 | 9.0 | 0.01 | 0.14 | 0.01 | 70 | 1012.1 |
| 20260507155256 | 38 | 156 | 3.0 | 9.0 | 0.01 | 0.14 | 0.01 | 71 | 1012.1 |
| 20260507155157 | 38 | 155 | 3.0 | 9.0 | 0.01 | 0.14 | 0.01 | 71 | 1012.1 |
| 20260507155056 | 38 | 146 | 5.0 | 9.0 | 0.01 | 0.14 | 0.01 | 71 | 1012.1 |
| 20260507154958 | 38 | 140 | 4.0 | 9.0 | 0.01 | 0.14 | 0.01 | 71 | 1012.0 |
| 20260507154857 | 38 | 151 | 4.0 | 9.0 | 0.01 | 0.14 | 0.01 | 71 | 1012.1 |
| 20260507154657 | 38 | 162 | 7.0 | 9.0 | 0.00 | 0.13 | 0.00 | 72 | 1012.1 |
| 20260507154557 | 38 | 133 | 1.0 | 7.0 | 0.00 | 0.13 | 0.00 | 74 | 1012.1 |
| 20260507154356 | 38 | 179 | 3.0 | 4.0 | 0.00 | 0.13 | 0.00 | 74 | 1012.0 |
| 20260507154257 | 38 | 179 | 1.0 | 4.0 | 0.00 | 0.13 | 0.00 | 74 | 1012.1 |
| 20260507154056 | 38 | 179 | 1.0 | 8.0 | 0.00 | 0.13 | 0.00 | 73 | 1012.1 |
| 20260507153958 | 38 | 179 | 2.0 | 8.0 | 0.00 | 0.13 | 0.00 | 73 | 1012.1 |
| 20260507153856 | 38 | 179 | 2.0 | 8.0 | 0.00 | 0.13 | 0.00 | 73 | 1012.1 |
| 20260507153757 | 38 | 179 | 2.0 | 8.0 | 0.00 | 0.13 | 0.00 | 73 | 1012.1 |
| 20260507153657 | 38 | 179 | 4.0 | 8.0 | 0.00 | 0.13 | 0.00 | 74 | 1012.1 |
| 20260507153557 | 38 | 179 | 2.0 | 8.0 | 0.00 | 0.13 | 0.00 | 74 | 1012.0 |
| 20260507153458 | 38 | 180 | 2.0 | 8.0 | 0.00 | 0.13 | 0.00 | 73 | 1012.1 |
| 20260507153258 | 38 | 159 | 4.0 | 9.0 | 0.00 | 0.13 | 0.00 | 73 | 1012.0 |
| 20260507153157 | 38 | 159 | 4.0 | 9.0 | 0.00 | 0.13 | 0.00 | 73 | 1012.0 |
| 20260507153057 | 38 | 173 | 2.0 | 9.0 | 0.00 | 0.13 | 0.00 | 73 | 1012.0 |
| 20260507152958 | 38 | 173 | 1.0 | 9.0 | 0.00 | 0.13 | 0.00 | 73 | 1012.0 |
| 20260507152857 | 38 | 161 | 5.0 | 9.0 | 0.00 | 0.13 | 0.00 | 73 | 1012.1 |
| 20260507152757 | 38 | 162 | 4.0 | 8.0 | 0.00 | 0.13 | 0.00 | 73 | 1012.1 |
| 20260507152656 | 38 | 165 | 6.0 | 7.0 | 0.00 | 0.13 | 0.00 | 73 | 1012.1 |
| 20260507152556 | 38 | 179 | 7.0 | 8.0 | 0.00 | 0.13 | 0.00 | 74 | 1012.1 |
| 20260507152458 | 38 | 184 | 3.0 | 8.0 | 0.00 | 0.13 | 0.00 | 73 | 1012.1 |
| 20260507152357 | 38 | 160 | 5.0 | 8.0 | 0.00 | 0.13 | 0.00 | 74 | 1012.1 |
| 20260507152257 | 38 | 158 | 2.0 | 8.0 | 0.00 | 0.13 | 0.00 | 74 | 1012.1 |
| 20260507152157 | 38 | 158 | 2.0 | 8.0 | 0.00 | 0.13 | 0.00 | 74 | 1012.1 |
| 20260507152056 | 38 | 158 | 2.0 | 8.0 | 0.00 | 0.13 | 0.00 | 74 | 1012.1 |
| 20260507151958 | 38 | 158 | 2.0 | 8.0 | 0.00 | 0.13 | 0.00 | 73 | 1012.1 |
| 20260507151857 | 38 | 157 | 2.0 | 8.0 | 0.00 | 0.13 | 0.00 | 73 | 1012.1 |
| 20260507151657 | 38 | 157 | 6.0 | 8.0 | 0.00 | 0.13 | 0.00 | 73 | 1012.1 |
| 20260507151558 | 38 | 158 | 2.0 | 6.0 | 0.00 | 0.13 | 0.00 | 73 | 1012.1 |
| 20260507151358 | 38 | 159 | 2.0 | 6.0 | 0.00 | 0.13 | 0.00 | 72 | 1012.1 |
| 20260507151156 | 38 | 159 | 4.0 | 7.0 | 0.00 | 0.13 | 0.00 | 72 | 1012.1 |
| 20260507151057 | 38 | 168 | 4.0 | 7.0 | 0.00 | 0.13 | 0.00 | 72 | 1012.1 |
| 20260507150958 | 38 | 184 | 6.0 | 9.0 | 0.00 | 0.13 | 0.00 | 72 | 1012.1 |
| 20260507150756 | 38 | 175 | 2.0 | 12.0 | 0.00 | 0.13 | 0.00 | 71 | 1012.0 |
| 20260507150658 | 38 | 170 | 5.0 | 12.0 | 0.00 | 0.13 | 0.00 | 72 | 1012.0 |
| 20260507150557 | 38 | 169 | 5.0 | 12.0 | 0.00 | 0.13 | 0.00 | 72 | 1012.0 |
| 20260507150458 | 38 | 169 | 7.0 | 12.0 | 0.00 | 0.13 | 0.00 | 72 | 1012.0 |
| 20260507150357 | 38 | 163 | 5.0 | 12.0 | 0.00 | 0.13 | 0.00 | 72 | 1012.1 |
| 20260507150256 | 38 | 163 | 5.0 | 12.0 | 0.00 | 0.13 | 0.00 | 72 | 1012.0 |
| 20260507150156 | 38 | 147 | 6.0 | 12.0 | 0.00 | 0.13 | 0.00 | 72 | 1011.9 |
| 20260507150056 | 38 | 129 | 8.0 | 12.0 | 0.00 | 0.13 | 0.00 | 72 | 1012.0 |
| 20260507145958 | 38 | 152 | 7.0 | 12.0 | 0.00 | 0.13 | 0.00 | 72 | 1012.1 |
| 20260507145756 | 38 | 144 | 3.0 | 11.0 | 0.00 | 0.13 | 0.00 | 74 | 1012.0 |
| 20260507145657 | 38 | 212 | 3.0 | 11.0 | 0.00 | 0.13 | 0.00 | 73 | 1012.0 |
| 20260507145556 | 38 | 174 | 6.0 | 11.0 | 0.00 | 0.13 | 0.00 | 74 | 1012.0 |
| 20260507145458 | 38 | 154 | 6.0 | 7.0 | 0.00 | 0.13 | 0.00 | 75 | 1012.0 |
| 20260507145358 | 38 | 169 | 2.0 | 8.0 | 0.00 | 0.13 | 0.00 | 75 | 1012.0 |
| 20260507145157 | 38 | 163 | 4.0 | 10.0 | 0.00 | 0.13 | 0.00 | 76 | 1012.0 |
| 20260507145057 | 38 | 163 | 2.0 | 10.0 | 0.00 | 0.13 | 0.00 | 75 | 1012.0 |
| 20260507144756 | 38 | 167 | 6.0 | 11.0 | 0.00 | 0.13 | 0.00 | 76 | 1012.0 |
| 20260507144656 | 38 | 179 | 4.0 | 11.0 | 0.00 | 0.13 | 0.00 | 76 | 1011.9 |
| 20260507144557 | 38 | 171 | 4.0 | 11.0 | 0.00 | 0.13 | 0.00 | 76 | 1011.9 |
| 20260507144458 | 38 | 172 | 5.0 | 11.0 | 0.00 | 0.13 | 0.00 | 75 | 1012.0 |
| 20260507144357 | 38 | 196 | 5.0 | 11.0 | 0.00 | 0.13 | 0.00 | 76 | 1012.0 |
| 20260507144158 | 37 | 148 | 5.0 | 11.0 | 0.00 | 0.13 | 0.00 | 76 | 1012.0 |
| 20260507144058 | 37 | 182 | 7.0 | 9.0 | 0.00 | 0.13 | 0.00 | 77 | 1012.0 |
| 20260507143959 | 37 | 161 | 5.0 | 9.0 | 0.00 | 0.13 | 0.00 | 77 | 1012.0 |
| 20260507143657 | 38 | 173 | 2.0 | 8.0 | 0.00 | 0.13 | 0.00 | 77 | 1012.0 |
| 20260507143557 | 38 | 173 | 5.0 | 8.0 | 0.00 | 0.13 | 0.00 | 77 | 1012.0 |
| 20260507143457 | 38 | 175 | 4.0 | 8.0 | 0.00 | 0.13 | 0.00 | 77 | 1012.0 |
| 20260507143357 | 38 | 175 | 2.0 | 8.0 | 0.00 | 0.13 | 0.00 | 77 | 1012.0 |
| 20260507143257 | 38 | 170 | 5.0 | 8.0 | 0.00 | 0.13 | 0.00 | 77 | 1012.0 |
| 20260507143157 | 38 | 157 | 5.0 | 7.0 | 0.00 | 0.13 | 0.00 | 77 | 1012.0 |
| 20260507143057 | 38 | 173 | 6.0 | 7.0 | 0.00 | 0.13 | 0.00 | 77 | 1012.0 |
| 20260507142958 | 38 | 163 | 4.0 | 7.0 | 0.00 | 0.13 | 0.00 | 77 | 1012.0 |
| 20260507142856 | 37 | 174 | 5.0 | 7.0 | 0.00 | 0.13 | 0.00 | 77 | 1012.1 |
| 20260507142755 | 37 | 170 | 5.0 | 7.0 | 0.00 | 0.13 | 0.00 | 77 | 1012.0 |
| 20260507142656 | 37 | 159 | 4.0 | 7.0 | 0.00 | 0.13 | 0.00 | 77 | 1012.0 |
| 20260507142459 | 37 | 173 | 2.0 | 9.0 | 0.00 | 0.13 | 0.00 | 77 | 1012.0 |
| 20260507142357 | 38 | 153 | 3.0 | 9.0 | 0.00 | 0.13 | 0.00 | 78 | 1012.0 |
| 20260507142256 | 38 | 171 | 5.0 | 10.0 | 0.00 | 0.13 | 0.00 | 78 | 1012.0 |
| 20260507142157 | 38 | 177 | 2.0 | 10.0 | 0.00 | 0.13 | 0.00 | 78 | 1011.9 |
| 20260507142057 | 38 | 177 | 2.0 | 10.0 | 0.00 | 0.13 | 0.00 | 78 | 1012.0 |
| 20260507141958 | 38 | 177 | 3.0 | 10.0 | 0.00 | 0.13 | 0.00 | 78 | 1012.0 |
| 20260507141756 | 38 | 178 | 4.0 | 10.0 | 0.00 | 0.13 | 0.00 | 77 | 1012.0 |
| 20260507141656 | 37 | 160 | 7.0 | 10.0 | 0.00 | 0.13 | 0.00 | 77 | 1012.0 |
| 20260507141557 | 37 | 173 | 5.0 | 10.0 | 0.00 | 0.13 | 0.00 | 77 | 1012.1 |
| 20260507141458 | 37 | 180 | 4.0 | 10.0 | 0.00 | 0.13 | 0.00 | 77 | 1012.0 |
| 20260507141356 | 37 | 175 | 4.0 | 10.0 | 0.00 | 0.13 | 0.00 | 78 | 1012.0 |
| 20260507141257 | 37 | 147 | 8.0 | 12.0 | 0.00 | 0.13 | 0.00 | 79 | 1012.0 |
| 20260507141157 | 37 | 167 | 5.0 | 12.0 | 0.00 | 0.13 | 0.00 | 79 | 1012.0 |
| 20260507141056 | 37 | 194 | 2.0 | 12.0 | 0.00 | 0.13 | 0.00 | 79 | 1012.0 |
| 20260507140958 | 37 | 194 | 3.0 | 12.0 | 0.00 | 0.13 | 0.00 | 79 | 1012.0 |
| 20260507140857 | 37 | 172 | 2.0 | 12.0 | 0.00 | 0.13 | 0.00 | 78 | 1012.0 |
| 20260507140757 | 37 | 172 | 5.0 | 12.0 | 0.00 | 0.13 | 0.00 | 79 | 1011.9 |
| 20260507140656 | 37 | 171 | 2.0 | 12.0 | 0.00 | 0.13 | 0.00 | 79 | 1012.0 |
| 20260507140556 | 37 | 185 | 5.0 | 12.0 | 0.00 | 0.13 | 0.00 | 80 | 1012.0 |
| 20260507140459 | 37 | 175 | 7.0 | 12.0 | 0.00 | 0.13 | 0.00 | 81 | 1012.0 |
| 20260507140256 | 36 | 171 | 6.0 | 6.0 | 0.00 | 0.13 | 0.00 | 82 | 1012.1 |
| 20260507140157 | 36 | 142 | 4.0 | 6.0 | 0.00 | 0.13 | 0.00 | 83 | 1012.0 |
| 20260507140057 | 36 | 136 | 2.0 | 6.0 | 0.00 | 0.13 | 0.00 | 83 | 1012.0 |
| 20260507140000 | 36 | 192 | 4.0 | 6.0 | 0.00 | 0.13 | 0.00 | 84 | 1012.0 |
| 20260507135857 | 36 | 167 | 3.0 | 5.0 | 0.00 | 0.13 | 0.00 | 84 | 1012.0 |
| 20260507135757 | 36 | 167 | 4.0 | 6.0 | 0.00 | 0.13 | 0.00 | 84 | 1012.1 |
| 20260507135656 | 36 | 167 | 4.0 | 6.0 | 0.00 | 0.13 | 0.00 | 85 | 1012.0 |
| 20260507135557 | 36 | 167 | 3.0 | 6.0 | 0.00 | 0.13 | 0.00 | 85 | 1012.0 |
| 20260507135458 | 36 | 167 | 4.0 | 6.0 | 0.00 | 0.13 | 0.00 | 85 | 1012.1 |
| 20260507135356 | 36 | 167 | 1.0 | 6.0 | 0.00 | 0.13 | 0.00 | 86 | 1012.1 |
| 20260507135257 | 35 | 167 | 5.0 | 6.0 | 0.00 | 0.13 | 0.00 | 87 | 1012.1 |
| 20260507135157 | 35 | 167 | 3.0 | 6.0 | 0.00 | 0.13 | 0.00 | 87 | 1012.1 |
| 20260507134957 | 35 | 167 | 3.0 | 6.0 | 0.00 | 0.13 | 0.00 | 88 | 1012.1 |
| 20260507134856 | 35 | 54 | 1.0 | 3.0 | 0.00 | 0.13 | 0.00 | 89 | 1012.1 |
| 20260507134756 | 35 | 54 | 2.0 | 3.0 | 0.00 | 0.13 | 0.00 | 89 | 1012.1 |
| 20260507134657 | 35 | 54 | 0.0 | 3.0 | 0.00 | 0.13 | 0.00 | 89 | 1012.2 |
| 20260507134557 | 35 | 54 | 2.0 | 3.0 | 0.00 | 0.13 | 0.00 | 89 | 1012.1 |
| 20260507134459 | 35 | 30 | 1.0 | 2.0 | 0.00 | 0.13 | 0.00 | 89 | 1012.1 |
| 20260507134358 | 35 | 30 | 1.0 | 2.0 | 0.00 | 0.13 | 0.00 | 89 | 1012.1 |
| 20260507134256 | 35 | 30 | 0.0 | 2.0 | 0.00 | 0.13 | 0.00 | 89 | 1012.1 |
| 20260507134157 | 35 | 30 | 2.0 | 3.0 | 0.00 | 0.13 | 0.00 | 89 | 1012.2 |
| 20260507134057 | 35 | 30 | 1.0 | 4.0 | 0.00 | 0.13 | 0.00 | 89 | 1012.2 |
| 20260507133856 | 36 | 30 | 0.0 | 5.0 | 0.00 | 0.13 | 0.00 | 89 | 1012.2 |
| 20260507133656 | 36 | 30 | 1.0 | 5.0 | 0.00 | 0.13 | 0.00 | 90 | 1012.2 |
| 20260507133557 | 36 | 30 | 1.0 | 5.0 | 0.00 | 0.13 | 0.00 | 90 | 1012.1 |
| 20260507133459 | 36 | 30 | 0.0 | 5.0 | 0.00 | 0.13 | 0.00 | 91 | 1012.1 |
| 20260507133357 | 36 | 30 | 2.0 | 5.0 | 0.00 | 0.13 | 0.00 | 90 | 1012.1 |
| 20260507133257 | 35 | 30 | 4.0 | 5.0 | 0.00 | 0.13 | 0.00 | 90 | 1012.1 |
| 20260507133156 | 35 | 30 | 3.0 | 5.0 | 0.00 | 0.13 | 0.00 | 90 | 1012.1 |
| 20260507133057 | 35 | 30 | 4.0 | 5.0 | 0.00 | 0.13 | 0.00 | 90 | 1012.1 |
| 20260507132958 | 36 | 30 | 4.0 | 4.0 | 0.00 | 0.13 | 0.00 | 90 | 1012.1 |
| 20260507132857 | 36 | 30 | 3.0 | 3.0 | 0.00 | 0.13 | 0.00 | 89 | 1012.1 |
| 20260507132756 | 35 | 30 | 2.0 | 3.0 | 0.00 | 0.13 | 0.00 | 89 | 1012.1 |
| 20260507132656 | 35 | 30 | 0.0 | 3.0 | 0.00 | 0.13 | 0.00 | 89 | 1012.2 |
| 20260507132557 | 36 | 30 | 2.0 | 3.0 | 0.00 | 0.13 | 0.00 | 89 | 1012.1 |
| 20260507132458 | 36 | 30 | 1.0 | 3.0 | 0.00 | 0.13 | 0.00 | 89 | 1012.1 |
| 20260507132357 | 36 | 30 | 2.0 | 3.0 | 0.00 | 0.13 | 0.00 | 89 | 1012.1 |
| 20260507132256 | 36 | 30 | 2.0 | 3.0 | 0.00 | 0.13 | 0.00 | 89 | 1012.1 |
| 20260507132156 | 36 | 30 | 2.0 | 3.0 | 0.00 | 0.13 | 0.00 | 89 | 1012.1 |
| 20260507132057 | 36 | 30 | 2.0 | 3.0 | 0.00 | 0.13 | 0.00 | 89 | 1012.1 |
| 20260507131959 | 36 | 30 | 1.0 | 2.0 | 0.00 | 0.13 | 0.00 | 88 | 1012.1 |
| 20260507131856 | 36 | 30 | 1.0 | 2.0 | 0.00 | 0.13 | 0.00 | 88 | 1012.1 |
| 20260507131756 | 36 | 30 | 1.0 | 2.0 | 0.00 | 0.13 | 0.00 | 88 | 1012.1 |
| 20260507131657 | 36 | 30 | 1.0 | 2.0 | 0.00 | 0.13 | 0.00 | 88 | 1012.0 |
| 20260507131556 | 36 | 30 | 0.0 | 2.0 | 0.00 | 0.13 | 0.00 | 88 | 1012.0 |
| 20260507131458 | 36 | 30 | 1.0 | 2.0 | 0.00 | 0.13 | 0.00 | 88 | 1012.0 |
| 20260507131356 | 36 | 30 | 1.0 | 3.0 | 0.00 | 0.13 | 0.00 | 88 | 1012.0 |
| 20260507131257 | 36 | 30 | 2.0 | 3.0 | 0.00 | 0.13 | 0.00 | 88 | 1012.0 |
| 20260507131156 | 36 | 30 | 0.0 | 3.0 | 0.00 | 0.13 | 0.00 | 89 | 1012.0 |
| 20260507131057 | 36 | 30 | 0.0 | 3.0 | 0.00 | 0.13 | 0.00 | 89 | 1011.9 |
| 20260507130958 | 36 | 30 | 0.0 | 3.0 | 0.00 | 0.13 | 0.00 | 89 | 1012.0 |
| 20260507130757 | 36 | 30 | 1.0 | 3.0 | 0.00 | 0.13 | 0.00 | 88 | 1011.9 |
| 20260507130556 | 36 | 30 | 2.0 | 4.0 | 0.00 | 0.13 | 0.00 | 88 | 1011.9 |
| 20260507130458 | 36 | 30 | 3.0 | 4.0 | 0.00 | 0.13 | 0.00 | 88 | 1011.9 |
| 20260507130358 | 36 | 30 | 1.0 | 4.0 | 0.00 | 0.13 | 0.00 | 88 | 1011.9 |
| 20260507130256 | 36 | 30 | 1.0 | 4.0 | 0.00 | 0.13 | 0.00 | 87 | 1011.9 |
| 20260507130057 | 36 | 30 | 3.0 | 5.0 | 0.00 | 0.13 | 0.00 | 87 | 1011.9 |
| 20260507125556 | 36 | 31 | 3.0 | 5.0 | 0.00 | 0.13 | 0.00 | 88 | 1011.9 |
| 20260507125458 | 36 | 31 | 3.0 | 5.0 | 0.00 | 0.13 | 0.00 | 87 | 1011.9 |
| 20260507125357 | 36 | 31 | 2.0 | 5.0 | 0.00 | 0.13 | 0.00 | 87 | 1011.9 |
| 20260507125257 | 36 | 30 | 5.0 | 5.0 | 0.00 | 0.13 | 0.00 | 87 | 1011.8 |
| 20260507125156 | 36 | 55 | 3.0 | 6.0 | 0.00 | 0.13 | 0.00 | 87 | 1011.9 |
| 20260507124958 | 36 | 90 | 3.0 | 6.0 | 0.00 | 0.13 | 0.00 | 88 | 1011.9 |
| 20260507124855 | 36 | 90 | 1.0 | 6.0 | 0.00 | 0.13 | 0.00 | 88 | 1011.9 |
| 20260507124756 | 36 | 90 | 3.0 | 6.0 | 0.00 | 0.13 | 0.00 | 88 | 1011.9 |
| 20260507124657 | 36 | 90 | 3.0 | 6.0 | 0.00 | 0.13 | 0.00 | 88 | 1011.9 |
| 20260507124556 | 36 | 90 | 4.0 | 6.0 | 0.00 | 0.13 | 0.00 | 88 | 1011.8 |
| 20260507124459 | 36 | 90 | 4.0 | 6.0 | 0.00 | 0.13 | 0.00 | 88 | 1011.9 |
| 20260507124357 | 36 | 180 | 3.0 | 3.0 | 0.00 | 0.13 | 0.00 | 88 | 1011.8 |
| 20260507124257 | 36 | 180 | 1.0 | 3.0 | 0.00 | 0.13 | 0.00 | 88 | 1011.9 |
| 20260507124156 | 36 | 180 | 3.0 | 4.0 | 0.00 | 0.13 | 0.00 | 88 | 1011.8 |
| 20260507124057 | 36 | 180 | 0.0 | 4.0 | 0.00 | 0.13 | 0.00 | 88 | 1011.9 |
| 20260507123857 | 36 | 180 | 0.0 | 5.0 | 0.00 | 0.13 | 0.00 | 88 | 1011.9 |
| 20260507123756 | 36 | 180 | 0.0 | 6.0 | 0.00 | 0.13 | 0.00 | 88 | 1011.9 |
| 20260507123656 | 36 | 180 | 0.0 | 8.0 | 0.00 | 0.13 | 0.00 | 88 | 1011.9 |
| 20260507123459 | 36 | 180 | 1.0 | 8.0 | 0.00 | 0.13 | 0.00 | 88 | 1011.9 |
| 20260507123356 | 36 | 180 | 0.0 | 8.0 | 0.00 | 0.13 | 0.00 | 88 | 1011.9 |
| 20260507123257 | 36 | 180 | 1.0 | 8.0 | 0.00 | 0.13 | 0.00 | 88 | 1011.9 |
| 20260507123057 | 36 | 193 | 3.0 | 8.0 | 0.00 | 0.13 | 0.00 | 88 | 1011.8 |
| 20260507122958 | 36 | 236 | 3.0 | 10.0 | 0.00 | 0.13 | 0.00 | 88 | 1011.9 |
| 20260507122857 | 36 | 155 | 2.0 | 10.0 | 0.00 | 0.13 | 0.00 | 88 | 1011.9 |
| 20260507122556 | 36 | 190 | 4.0 | 10.0 | 0.00 | 0.13 | 0.00 | 88 | 1011.9 |
| 20260507122459 | 36 | 181 | 2.0 | 10.0 | 0.00 | 0.13 | 0.00 | 88 | 1011.9 |
| 20260507122257 | 36 | 201 | 4.0 | 10.0 | 0.00 | 0.13 | 0.00 | 88 | 1012.0 |
| 20260507122156 | 36 | 180 | 3.0 | 10.0 | 0.00 | 0.13 | 0.00 | 88 | 1012.0 |
| 20260507122056 | 36 | 208 | 4.0 | 10.0 | 0.00 | 0.13 | 0.00 | 88 | 1011.9 |
| 20260507121958 | 36 | 219 | 3.0 | 10.0 | 0.00 | 0.13 | 0.00 | 88 | 1011.9 |
| 20260507121856 | 36 | 223 | 7.0 | 10.0 | 0.00 | 0.13 | 0.00 | 88 | 1012.0 |
| 20260507121757 | 36 | 175 | 1.0 | 8.0 | 0.00 | 0.13 | 0.00 | 88 | 1012.0 |
| 20260507121656 | 36 | 175 | 7.0 | 10.0 | 0.00 | 0.13 | 0.00 | 88 | 1011.9 |
| 20260507121458 | 36 | 180 | 5.0 | 10.0 | 0.00 | 0.13 | 0.00 | 88 | 1011.9 |
| 20260507121357 | 36 | 161 | 7.0 | 10.0 | 0.00 | 0.13 | 0.00 | 88 | 1012.0 |
| 20260507121257 | 36 | 183 | 4.0 | 10.0 | 0.00 | 0.13 | 0.00 | 88 | 1012.0 |
| 20260507121157 | 36 | 206 | 4.0 | 10.0 | 0.00 | 0.13 | 0.00 | 87 | 1012.0 |
| 20260507121056 | 36 | 173 | 5.0 | 10.0 | 0.00 | 0.13 | 0.00 | 88 | 1012.0 |
| 20260507120958 | 36 | 180 | 4.0 | 10.0 | 0.00 | 0.13 | 0.00 | 88 | 1012.0 |
| 20260507120757 | 36 | 188 | 2.0 | 10.0 | 0.00 | 0.13 | 0.00 | 88 | 1012.0 |
| 20260507120657 | 36 | 188 | 3.0 | 10.0 | 0.00 | 0.13 | 0.00 | 88 | 1011.9 |
| 20260507120557 | 36 | 142 | 8.0 | 10.0 | 0.00 | 0.13 | 0.00 | 87 | 1011.9 |
| 20260507120457 | 36 | 165 | 7.0 | 10.0 | 0.00 | 0.13 | 0.00 | 87 | 1012.0 |
| 20260507120356 | 36 | 178 | 5.0 | 10.0 | 0.00 | 0.13 | 0.00 | 87 | 1012.1 |
| 20260507120257 | 36 | 210 | 4.0 | 10.0 | 0.00 | 0.13 | 0.00 | 87 | 1011.9 |
| 20260507120156 | 36 | 166 | 4.0 | 10.0 | 0.00 | 0.13 | 0.00 | 87 | 1012.0 |
| 20260507120056 | 36 | 188 | 7.0 | 12.0 | 0.00 | 0.13 | 0.00 | 87 | 1012.0 |
| 20260507115958 | 36 | 202 | 7.0 | 8.0 | 0.00 | 0.13 | 0.00 | 87 | 1012.0 |
| 20260507115856 | 36 | 217 | 3.0 | 8.0 | 0.00 | 0.13 | 0.00 | 87 | 1012.1 |
| 20260507115656 | 36 | 188 | 2.0 | 9.0 | 0.00 | 0.13 | 0.00 | 87 | 1012.1 |
| 20260507115555 | 36 | 147 | 2.0 | 9.0 | 0.00 | 0.13 | 0.00 | 86 | 1012.1 |
| 20260507115457 | 36 | 147 | 2.0 | 9.0 | 0.00 | 0.13 | 0.00 | 86 | 1012.0 |
| 20260507115256 | 36 | 147 | 2.0 | 9.0 | 0.00 | 0.13 | 0.00 | 86 | 1012.1 |
| 20260507115155 | 36 | 184 | 3.0 | 9.0 | 0.00 | 0.13 | 0.00 | 86 | 1012.0 |
| 20260507115055 | 36 | 176 | 5.0 | 9.0 | 0.00 | 0.13 | 0.00 | 86 | 1012.1 |
| 20260507114956 | 36 | 207 | 8.0 | 9.0 | 0.00 | 0.13 | 0.00 | 86 | 1012.1 |
| 20260507114755 | 36 | 177 | 2.0 | 9.0 | 0.00 | 0.13 | 0.00 | 86 | 1012.1 |
| 20260507114655 | 36 | 209 | 2.0 | 10.0 | 0.00 | 0.13 | 0.00 | 86 | 1012.1 |
| 20260507114555 | 36 | 198 | 4.0 | 10.0 | 0.00 | 0.13 | 0.00 | 86 | 1012.1 |
| 20260507114457 | 36 | 190 | 2.0 | 10.0 | 0.00 | 0.13 | 0.00 | 86 | 1012.1 |
| 20260507114055 | 36 | 198 | 6.0 | 12.0 | 0.00 | 0.13 | 0.00 | 85 | 1012.1 |
| 20260507113958 | 37 | 196 | 4.0 | 12.0 | 0.00 | 0.13 | 0.00 | 85 | 1012.1 |
| 20260507113755 | 37 | 182 | 6.0 | 12.0 | 0.00 | 0.13 | 0.00 | 85 | 1012.2 |
| 20260507113555 | 36 | 214 | 3.0 | 12.0 | 0.00 | 0.13 | 0.00 | 85 | 1012.1 |
| 20260507113457 | 36 | 202 | 4.0 | 12.0 | 0.00 | 0.13 | 0.00 | 85 | 1012.1 |
| 20260507113355 | 36 | 190 | 3.0 | 12.0 | 0.00 | 0.13 | 0.00 | 85 | 1012.1 |
| 20260507113255 | 36 | 215 | 11.0 | 13.0 | 0.00 | 0.13 | 0.00 | 86 | 1012.2 |
| 20260507113156 | 36 | 163 | 6.0 | 15.0 | 0.00 | 0.13 | 0.00 | 86 | 1012.2 |
| 20260507113055 | 36 | 138 | 9.0 | 15.0 | 0.00 | 0.13 | 0.00 | 86 | 1012.1 |
| 20260507112958 | 36 | 209 | 7.0 | 15.0 | 0.00 | 0.13 | 0.00 | 86 | 1012.1 |
| 20260507112855 | 36 | 192 | 4.0 | 15.0 | 0.00 | 0.13 | 0.00 | 86 | 1012.1 |
| 20260507112756 | 36 | 211 | 9.0 | 15.0 | 0.00 | 0.13 | 0.00 | 86 | 1012.1 |
| 20260507112655 | 36 | 201 | 8.0 | 15.0 | 0.00 | 0.13 | 0.00 | 86 | 1012.1 |
| 20260507112556 | 36 | 164 | 7.0 | 15.0 | 0.00 | 0.13 | 0.00 | 86 | 1012.1 |
| 20260507112459 | 36 | 236 | 4.0 | 15.0 | 0.00 | 0.13 | 0.00 | 86 | 1012.1 |
| 20260507112356 | 37 | 161 | 11.0 | 15.0 | 0.00 | 0.13 | 0.00 | 85 | 1012.1 |
| 20260507112056 | 37 | 157 | 9.0 | 13.0 | 0.00 | 0.13 | 0.00 | 85 | 1012.1 |
| 20260507111957 | 37 | 204 | 10.0 | 13.0 | 0.00 | 0.13 | 0.00 | 84 | 1012.1 |
| 20260507111856 | 37 | 215 | 6.0 | 13.0 | 0.00 | 0.13 | 0.00 | 84 | 1012.1 |
| 20260507111656 | 37 | 236 | 9.0 | 13.0 | 0.00 | 0.13 | 0.00 | 84 | 1012.1 |
| 20260507111459 | 37 | 207 | 10.0 | 13.0 | 0.00 | 0.13 | 0.00 | 83 | 1012.0 |
| 20260507111256 | 37 | 167 | 11.0 | 12.0 | 0.00 | 0.13 | 0.00 | 82 | 1012.1 |
| 20260507111156 | 37 | 184 | 5.0 | 12.0 | 0.00 | 0.13 | 0.00 | 82 | 1012.1 |
| 20260507111056 | 37 | 207 | 6.0 | 12.0 | 0.00 | 0.13 | 0.00 | 82 | 1012.1 |
| 20260507110957 | 38 | 178 | 7.0 | 12.0 | 0.00 | 0.13 | 0.00 | 81 | 1012.1 |
| 20260507110754 | 38 | 180 | 10.0 | 10.0 | 0.00 | 0.13 | 0.00 | 80 | 1012.0 |
| 20260507110655 | 38 | 223 | 5.0 | 10.0 | 0.00 | 0.13 | 0.00 | 79 | 1011.9 |
| 20260507110556 | 39 | 188 | 1.0 | 10.0 | 0.00 | 0.13 | 0.00 | 78 | 1012.1 |
| 20260507110256 | 39 | 153 | 3.0 | 11.0 | 0.00 | 0.13 | 0.00 | 75 | 1011.9 |
| 20260507110156 | 39 | 166 | 5.0 | 11.0 | 0.00 | 0.13 | 0.00 | 75 | 1011.9 |
| 20260507105957 | 39 | 192 | 2.0 | 11.0 | 0.00 | 0.13 | 0.00 | 75 | 1011.9 |
| 20260507105855 | 39 | 192 | 4.0 | 11.0 | 0.00 | 0.13 | 0.00 | 74 | 1011.9 |
| 20260507105756 | 39 | 180 | 1.0 | 12.0 | 0.00 | 0.13 | 0.00 | 74 | 1011.9 |
| 20260507105655 | 39 | 165 | 5.0 | 11.0 | 0.00 | 0.13 | 0.00 | 73 | 1011.9 |
| 20260507105555 | 39 | 161 | 8.0 | 12.0 | 0.00 | 0.13 | 0.00 | 73 | 1011.9 |
| 20260507105456 | 39 | 163 | 6.0 | 12.0 | 0.00 | 0.13 | 0.00 | 74 | 1011.8 |
| 20260507105355 | 39 | 164 | 5.0 | 12.0 | 0.00 | 0.13 | 0.00 | 74 | 1011.9 |
| 20260507105255 | 39 | 167 | 5.0 | 12.0 | 0.00 | 0.13 | 0.00 | 73 | 1011.9 |
| 20260507105155 | 39 | 175 | 7.0 | 12.0 | 0.00 | 0.13 | 0.00 | 74 | 1011.9 |
| 20260507105056 | 39 | 170 | 6.0 | 12.0 | 0.00 | 0.13 | 0.00 | 73 | 1011.9 |
| 20260507104956 | 39 | 142 | 6.0 | 11.0 | 0.00 | 0.13 | 0.00 | 74 | 1011.9 |
| 20260507104856 | 39 | 162 | 5.0 | 11.0 | 0.00 | 0.13 | 0.00 | 73 | 1011.9 |
| 20260507104756 | 39 | 138 | 11.0 | 11.0 | 0.00 | 0.13 | 0.00 | 74 | 1011.8 |
| 20260507104656 | 39 | 175 | 4.0 | 10.0 | 0.00 | 0.13 | 0.00 | 74 | 1011.9 |
| 20260507104555 | 39 | 157 | 6.0 | 10.0 | 0.00 | 0.13 | 0.00 | 74 | 1011.8 |
| 20260507104457 | 39 | 163 | 2.0 | 10.0 | 0.00 | 0.13 | 0.00 | 74 | 1011.9 |
| 20260507104356 | 38 | 173 | 5.0 | 10.0 | 0.00 | 0.13 | 0.00 | 75 | 1011.8 |
| 20260507104255 | 38 | 176 | 9.0 | 10.0 | 0.00 | 0.13 | 0.00 | 74 | 1011.8 |
| 20260507104055 | 38 | 140 | 8.0 | 10.0 | 0.00 | 0.13 | 0.00 | 76 | 1011.9 |
| 20260507103855 | 38 | 117 | 2.0 | 14.0 | 0.00 | 0.13 | 0.00 | 77 | 1011.9 |
| 20260507103756 | 38 | 165 | 4.0 | 14.0 | 0.00 | 0.13 | 0.00 | 77 | 1011.8 |
| 20260507103656 | 38 | 157 | 5.0 | 14.0 | 0.00 | 0.13 | 0.00 | 77 | 1011.9 |
| 20260507103556 | 38 | 154 | 4.0 | 14.0 | 0.00 | 0.13 | 0.00 | 77 | 1011.9 |
| 20260507103458 | 37 | 149 | 4.0 | 14.0 | 0.00 | 0.13 | 0.00 | 78 | 1011.9 |
| 20260507103355 | 37 | 144 | 4.0 | 14.0 | 0.00 | 0.13 | 0.00 | 79 | 1011.9 |
| 20260507103255 | 37 | 142 | 4.0 | 14.0 | 0.00 | 0.13 | 0.00 | 80 | 1011.8 |
| 20260507103156 | 37 | 174 | 3.0 | 14.0 | 0.00 | 0.13 | 0.00 | 80 | 1011.8 |
| 20260507103056 | 37 | 125 | 7.0 | 14.0 | 0.00 | 0.13 | 0.00 | 80 | 1011.9 |
| 20260507102957 | 36 | 175 | 8.0 | 8.0 | 0.00 | 0.13 | 0.00 | 82 | 1011.9 |
| 20260507102854 | 36 | 162 | 4.0 | 8.0 | 0.00 | 0.13 | 0.00 | 83 | 1011.8 |
| 20260507102756 | 36 | 169 | 0.0 | 8.0 | 0.00 | 0.13 | 0.00 | 83 | 1011.9 |
| 20260507102655 | 36 | 169 | 4.0 | 8.0 | 0.00 | 0.13 | 0.00 | 83 | 1011.8 |
| 20260507102555 | 36 | 169 | 4.0 | 8.0 | 0.00 | 0.13 | 0.00 | 84 | 1011.8 |
| 20260507102458 | 36 | 166 | 0.0 | 8.0 | 0.00 | 0.13 | 0.00 | 84 | 1011.8 |
| 20260507102356 | 36 | 166 | 0.0 | 8.0 | 0.00 | 0.13 | 0.00 | 84 | 1011.8 |
| 20260507102155 | 36 | 165 | 2.0 | 8.0 | 0.00 | 0.13 | 0.00 | 85 | 1011.8 |
| 20260507102055 | 36 | 151 | 4.0 | 8.0 | 0.00 | 0.13 | 0.00 | 86 | 1011.9 |
| 20260507101957 | 36 | 140 | 8.0 | 8.0 | 0.00 | 0.13 | 0.00 | 87 | 1011.8 |
| 20260507101856 | 36 | 229 | 0.0 | 3.0 | 0.00 | 0.13 | 0.00 | 86 | 1011.9 |
| 20260507101755 | 36 | 229 | 1.0 | 3.0 | 0.00 | 0.13 | 0.00 | 86 | 1011.8 |
| 20260507101555 | 36 | 229 | 0.0 | 3.0 | 0.00 | 0.13 | 0.00 | 86 | 1011.8 |
| 20260507101457 | 36 | 229 | 2.0 | 3.0 | 0.00 | 0.13 | 0.00 | 86 | 1011.8 |
| 20260507101256 | 36 | 180 | 1.0 | 2.0 | 0.00 | 0.13 | 0.00 | 86 | 1011.8 |
| 20260507101154 | 36 | 180 | 1.0 | 3.0 | 0.00 | 0.13 | 0.00 | 85 | 1011.8 |
| 20260507101055 | 36 | 180 | 2.0 | 6.0 | 0.00 | 0.13 | 0.00 | 85 | 1011.8 |
| 20260507100957 | 36 | 180 | 1.0 | 6.0 | 0.00 | 0.13 | 0.00 | 85 | 1011.8 |
| 20260507100756 | 36 | 180 | 2.0 | 7.0 | 0.00 | 0.13 | 0.00 | 85 | 1011.8 |
| 20260507100655 | 36 | 180 | 2.0 | 7.0 | 0.00 | 0.13 | 0.00 | 85 | 1011.7 |
| 20260507100554 | 36 | 180 | 1.0 | 9.0 | 0.00 | 0.13 | 0.00 | 85 | 1011.7 |
| 20260507100457 | 36 | 180 | 1.0 | 10.0 | 0.00 | 0.13 | 0.00 | 85 | 1011.7 |
| 20260507100355 | 36 | 180 | 0.0 | 10.0 | 0.00 | 0.13 | 0.00 | 86 | 1011.7 |
| 20260507100255 | 36 | 217 | 2.0 | 10.0 | 0.00 | 0.13 | 0.00 | 85 | 1011.7 |
| 20260507100156 | 36 | 192 | 0.0 | 10.0 | 0.00 | 0.13 | 0.00 | 85 | 1011.7 |
| 20260507100056 | 36 | 192 | 3.0 | 10.0 | 0.00 | 0.13 | 0.00 | 85 | 1011.7 |
| 20260507095956 | 36 | 193 | 3.0 | 10.0 | 0.00 | 0.13 | 0.00 | 85 | 1011.7 |
| 20260507095855 | 36 | 198 | 2.0 | 11.0 | 0.00 | 0.13 | 0.00 | 85 | 1011.7 |
| 20260507095754 | 36 | 201 | 3.0 | 11.0 | 0.00 | 0.13 | 0.00 | 85 | 1011.7 |
| 20260507095655 | 37 | 219 | 8.0 | 11.0 | 0.00 | 0.13 | 0.00 | 85 | 1011.7 |
| 20260507095555 | 37 | 221 | 6.0 | 11.0 | 0.00 | 0.13 | 0.00 | 84 | 1011.7 |
| 20260507095459 | 37 | 211 | 2.0 | 11.0 | 0.00 | 0.13 | 0.00 | 84 | 1011.7 |
| 20260507095356 | 37 | 182 | 5.0 | 11.0 | 0.00 | 0.13 | 0.00 | 83 | 1011.7 |
| 20260507095255 | 37 | 196 | 2.0 | 11.0 | 0.00 | 0.13 | 0.00 | 83 | 1011.8 |
| 20260507095155 | 37 | 219 | 3.0 | 11.0 | 0.00 | 0.13 | 0.00 | 83 | 1011.8 |
| 20260507094957 | 37 | 188 | 7.0 | 10.0 | 0.00 | 0.13 | 0.00 | 82 | 1011.8 |
| 20260507094855 | 38 | 222 | 7.0 | 9.0 | 0.00 | 0.13 | 0.00 | 82 | 1011.8 |
| 20260507094656 | 38 | 206 | 7.0 | 8.0 | 0.00 | 0.13 | 0.00 | 81 | 1011.8 |
| 20260507094556 | 38 | 165 | 6.0 | 8.0 | 0.00 | 0.13 | 0.00 | 80 | 1011.8 |
| 20260507094457 | 38 | 178 | 5.0 | 7.0 | 0.00 | 0.13 | 0.00 | 79 | 1011.8 |
| 20260507094356 | 38 | 218 | 2.0 | 7.0 | 0.00 | 0.13 | 0.00 | 79 | 1011.8 |
| 20260507094255 | 38 | 226 | 2.0 | 9.0 | 0.00 | 0.13 | 0.00 | 77 | 1011.8 |
| 20260507094156 | 38 | 182 | 2.0 | 9.0 | 0.00 | 0.13 | 0.00 | 77 | 1011.7 |
| 20260507094056 | 38 | 155 | 3.0 | 9.0 | 0.00 | 0.13 | 0.00 | 78 | 1011.7 |
| 20260507093958 | 38 | 170 | 2.0 | 9.0 | 0.00 | 0.13 | 0.00 | 79 | 1011.7 |
| 20260507093855 | 39 | 167 | 1.0 | 9.0 | 0.00 | 0.13 | 0.00 | 79 | 1011.7 |
| 20260507093757 | 39 | 167 | 0.0 | 9.0 | 0.00 | 0.13 | 0.00 | 78 | 1011.7 |
| 20260507093655 | 38 | 167 | 4.0 | 9.0 | 0.00 | 0.13 | 0.00 | 77 | 1011.7 |
| 20260507093555 | 39 | 169 | 5.0 | 9.0 | 0.00 | 0.13 | 0.00 | 77 | 1011.7 |
| 20260507093356 | 39 | 162 | 5.0 | 9.0 | 0.00 | 0.13 | 0.00 | 77 | 1011.7 |
| 20260507093256 | 39 | 176 | 1.0 | 12.0 | 0.00 | 0.13 | 0.00 | 77 | 1011.7 |
| 20260507093155 | 39 | 172 | 2.0 | 12.0 | 0.00 | 0.13 | 0.00 | 77 | 1011.6 |
| 20260507093055 | 39 | 172 | 3.0 | 12.0 | 0.00 | 0.13 | 0.00 | 76 | 1011.6 |
| 20260507092959 | 39 | 173 | 5.0 | 12.0 | 0.00 | 0.13 | 0.00 | 77 | 1011.7 |
| 20260507092855 | 39 | 159 | 8.0 | 12.0 | 0.00 | 0.13 | 0.00 | 77 | 1011.6 |
| 20260507092756 | 39 | 117 | 8.0 | 12.0 | 0.00 | 0.13 | 0.00 | 77 | 1011.6 |
| 20260507092556 | 39 | 140 | 7.0 | 12.0 | 0.00 | 0.13 | 0.00 | 76 | 1011.6 |
| 20260507092457 | 39 | 168 | 10.0 | 12.0 | 0.00 | 0.13 | 0.00 | 77 | 1011.6 |
| 20260507092354 | 39 | 191 | 2.0 | 11.0 | 0.00 | 0.13 | 0.00 | 77 | 1011.5 |
| 20260507092154 | 39 | 163 | 6.0 | 12.0 | 0.00 | 0.13 | 0.00 | 76 | 1011.6 |
| 20260507092055 | 39 | 144 | 10.0 | 12.0 | 0.00 | 0.13 | 0.00 | 77 | 1011.6 |
| 20260507091956 | 39 | 157 | 3.0 | 12.0 | 0.00 | 0.13 | 0.00 | 76 | 1011.7 |
| 20260507091755 | 39 | 184 | 5.0 | 14.0 | 0.00 | 0.13 | 0.00 | 76 | 1011.6 |
| 20260507091655 | 39 | 167 | 5.0 | 15.0 | 0.00 | 0.13 | 0.00 | 76 | 1011.6 |
| 20260507091555 | 39 | 182 | 6.0 | 15.0 | 0.00 | 0.13 | 0.00 | 76 | 1011.6 |
| 20260507091456 | 39 | 137 | 8.0 | 15.0 | 0.00 | 0.13 | 0.00 | 76 | 1011.6 |
| 20260507091357 | 39 | 136 | 9.0 | 15.0 | 0.00 | 0.13 | 0.00 | 77 | 1011.7 |
| 20260507091155 | 39 | 169 | 2.0 | 15.0 | 0.00 | 0.13 | 0.00 | 78 | 1011.6 |
| 20260507091055 | 39 | 168 | 5.0 | 15.0 | 0.00 | 0.13 | 0.00 | 78 | 1011.6 |
| 20260507090957 | 39 | 173 | 5.0 | 15.0 | 0.00 | 0.13 | 0.00 | 77 | 1011.6 |
| 20260507090856 | 39 | 148 | 10.0 | 15.0 | 0.00 | 0.13 | 0.00 | 77 | 1011.5 |
| 20260507090756 | 39 | 171 | 12.0 | 15.0 | 0.00 | 0.13 | 0.00 | 77 | 1011.5 |
| 20260507090555 | 39 | 171 | 9.0 | 14.0 | 0.00 | 0.13 | 0.00 | 77 | 1011.5 |
| 20260507090457 | 39 | 144 | 12.0 | 17.0 | 0.00 | 0.13 | 0.00 | 77 | 1011.6 |
| 20260507090355 | 39 | 123 | 7.0 | 17.0 | 0.00 | 0.13 | 0.00 | 77 | 1011.5 |
| 20260507090255 | 39 | 175 | 7.0 | 17.0 | 0.00 | 0.13 | 0.00 | 77 | 1011.6 |
| 20260507090156 | 39 | 155 | 10.0 | 17.0 | 0.00 | 0.13 | 0.00 | 78 | 1011.5 |
| 20260507090056 | 39 | 165 | 6.0 | 17.0 | 0.00 | 0.13 | 0.00 | 77 | 1011.5 |
| 20260507090002 | 39 | 142 | 11.0 | 17.0 | 0.00 | 0.13 | 0.00 | 77 | 1011.5 |
| 20260507085859 | 39 | 169 | 6.0 | 17.0 | 0.00 | 0.13 | 0.00 | 77 | 1011.5 |
| 20260507085758 | 38 | 168 | 6.0 | 17.0 | 0.00 | 0.13 | 0.00 | 78 | 1011.5 |
| 20260507085658 | 38 | 177 | 7.0 | 17.0 | 0.00 | 0.13 | 0.00 | 78 | 1011.5 |
| 20260507085559 | 38 | 159 | 12.0 | 14.0 | 0.00 | 0.13 | 0.00 | 79 | 1011.5 |
| 20260507085500 | 38 | 140 | 9.0 | 11.0 | 0.00 | 0.13 | 0.00 | 79 | 1011.4 |
| 20260507085359 | 38 | 162 | 6.0 | 11.0 | 0.00 | 0.13 | 0.00 | 79 | 1011.4 |
| 20260507085258 | 38 | 153 | 7.0 | 12.0 | 0.00 | 0.13 | 0.00 | 80 | 1011.4 |
| 20260507085059 | 38 | 173 | 3.0 | 8.0 | 0.00 | 0.13 | 0.00 | 80 | 1011.4 |
| 20260507085000 | 38 | 142 | 3.0 | 12.0 | 0.00 | 0.13 | 0.00 | 81 | 1011.4 |
| 20260507084859 | 38 | 172 | 1.0 | 16.0 | 0.00 | 0.13 | 0.00 | 81 | 1011.4 |
| 20260507084759 | 38 | 229 | 4.0 | 16.0 | 0.00 | 0.13 | 0.00 | 81 | 1011.4 |
| 20260507084558 | 38 | 174 | 3.0 | 16.0 | 0.00 | 0.13 | 0.00 | 81 | 1011.4 |
| 20260507084500 | 38 | 161 | 2.0 | 16.0 | 0.00 | 0.13 | 0.00 | 80 | 1011.4 |
| 20260507084358 | 37 | 136 | 4.0 | 16.0 | 0.00 | 0.13 | 0.00 | 82 | 1011.3 |
| 20260507084259 | 37 | 161 | 6.0 | 16.0 | 0.00 | 0.13 | 0.00 | 83 | 1011.3 |
| 20260507084158 | 37 | 167 | 6.0 | 16.0 | 0.00 | 0.13 | 0.00 | 83 | 1011.3 |
| 20260507084059 | 36 | 155 | 10.0 | 12.0 | 0.00 | 0.13 | 0.00 | 86 | 1011.3 |
| 20260507084001 | 36 | 150 | 1.0 | 9.0 | 0.00 | 0.13 | 0.00 | 86 | 1011.2 |
| 20260507083857 | 36 | 146 | 1.0 | 9.0 | 0.00 | 0.13 | 0.00 | 86 | 1011.3 |
| 20260507083659 | 36 | 87 | 1.0 | 8.0 | 0.00 | 0.13 | 0.00 | 88 | 1011.2 |
| 20260507083459 | 36 | 88 | 1.0 | 8.0 | 0.00 | 0.13 | 0.00 | 89 | 1011.2 |
| 20260507083358 | 36 | 88 | 1.0 | 8.0 | 0.00 | 0.13 | 0.00 | 88 | 1011.2 |
| 20260507083158 | 36 | 86 | 3.0 | 8.0 | 0.00 | 0.13 | 0.00 | 90 | 1011.2 |
| 20260507083059 | 36 | 36 | 2.0 | 6.0 | 0.00 | 0.13 | 0.00 | 90 | 1011.2 |
| 20260507083001 | 36 | 44 | 4.0 | 5.0 | 0.00 | 0.13 | 0.00 | 90 | 1011.2 |
| 20260507082659 | 36 | 34 | 3.0 | 5.0 | 0.00 | 0.13 | 0.00 | 90 | 1011.2 |
| 20260507082500 | 36 | 37 | 3.0 | 5.0 | 0.00 | 0.13 | 0.00 | 91 | 1011.3 |
| 20260507082358 | 36 | 38 | 3.0 | 5.0 | 0.00 | 0.13 | 0.00 | 91 | 1011.2 |
| 20260507082259 | 36 | 32 | 3.0 | 5.0 | 0.00 | 0.13 | 0.00 | 91 | 1011.1 |
| 20260507082158 | 36 | 360 | 4.0 | 5.0 | 0.00 | 0.13 | 0.00 | 91 | 1011.1 |
| 20260507082000 | 36 | 327 | 3.0 | 5.0 | 0.00 | 0.13 | 0.00 | 91 | 1011.2 |
| 20260507081859 | 36 | 322 | 3.0 | 5.0 | 0.00 | 0.13 | 0.00 | 91 | 1011.2 |
| 20260507081758 | 36 | 316 | 3.0 | 5.0 | 0.00 | 0.13 | 0.00 | 91 | 1011.2 |
| 20260507081658 | 36 | 315 | 3.0 | 5.0 | 0.00 | 0.13 | 0.00 | 91 | 1011.2 |
| 20260507081558 | 36 | 318 | 2.0 | 5.0 | 0.00 | 0.13 | 0.00 | 91 | 1011.2 |
| 20260507081459 | 36 | 20 | 4.0 | 5.0 | 0.00 | 0.13 | 0.00 | 91 | 1011.2 |
| 20260507081359 | 36 | 20 | 2.0 | 5.0 | 0.00 | 0.13 | 0.00 | 91 | 1011.2 |
| 20260507081258 | 36 | 18 | 2.0 | 6.0 | 0.00 | 0.13 | 0.00 | 91 | 1011.2 |
| 20260507081200 | 36 | 18 | 3.0 | 6.0 | 0.00 | 0.13 | 0.00 | 91 | 1011.1 |
| 20260507081059 | 36 | 19 | 4.0 | 6.0 | 0.00 | 0.13 | 0.00 | 91 | 1011.2 |
| 20260507080959 | 36 | 28 | 3.0 | 6.0 | 0.00 | 0.13 | 0.00 | 91 | 1011.2 |
| 20260507080858 | 36 | 28 | 4.0 | 6.0 | 0.00 | 0.13 | 0.00 | 91 | 1011.1 |
| 20260507080759 | 36 | 28 | 3.0 | 6.0 | 0.00 | 0.13 | 0.00 | 91 | 1011.1 |
| 20260507080659 | 36 | 27 | 4.0 | 6.0 | 0.00 | 0.13 | 0.00 | 91 | 1011.1 |
| 20260507080557 | 36 | 26 | 4.0 | 6.0 | 0.00 | 0.13 | 0.00 | 91 | 1011.1 |
| 20260507080459 | 36 | 26 | 5.0 | 6.0 | 0.00 | 0.13 | 0.00 | 91 | 1011.2 |
| 20260507080358 | 36 | 44 | 2.0 | 9.0 | 0.00 | 0.13 | 0.00 | 91 | 1011.1 |
| 20260507080259 | 36 | 44 | 3.0 | 9.0 | 0.00 | 0.13 | 0.00 | 90 | 1011.1 |
| 20260507080159 | 36 | 44 | 4.0 | 9.0 | 0.00 | 0.13 | 0.00 | 90 | 1011.2 |
| 20260507080058 | 36 | 45 | 3.0 | 9.0 | 0.00 | 0.13 | 0.00 | 91 | 1011.1 |
| 20260507080005 | 36 | 45 | 4.0 | 9.0 | 0.00 | 0.13 | 0.00 | 91 | 1011.1 |
| 20260507075758 | 36 | 40 | 4.0 | 9.0 | 0.00 | 0.13 | 0.13 | 91 | 1011.1 |
| 20260507075658 | 36 | 38 | 3.0 | 9.0 | 0.00 | 0.13 | 0.13 | 90 | 1011.1 |
| 20260507075557 | 36 | 23 | 6.0 | 9.0 | 0.00 | 0.13 | 0.13 | 90 | 1011.1 |
| 20260507075501 | 36 | 36 | 6.0 | 8.0 | 0.00 | 0.13 | 0.13 | 89 | 1011.1 |
| 20260507075358 | 36 | 46 | 4.0 | 6.0 | 0.00 | 0.13 | 0.13 | 89 | 1011.1 |
| 20260507075259 | 36 | 46 | 6.0 | 6.0 | 0.00 | 0.13 | 0.13 | 89 | 1011.1 |
| 20260507075059 | 36 | 9 | 3.0 | 5.0 | 0.00 | 0.13 | 0.13 | 89 | 1011.1 |
| 20260507075000 | 36 | 47 | 1.0 | 5.0 | 0.00 | 0.13 | 0.13 | 89 | 1011.1 |
| 20260507074859 | 36 | 47 | 4.0 | 5.0 | 0.00 | 0.13 | 0.13 | 89 | 1011.1 |
| 20260507074759 | 37 | 36 | 4.0 | 5.0 | 0.01 | 0.13 | 0.13 | 89 | 1011.0 |
| 20260507074659 | 37 | 5 | 3.0 | 5.0 | 0.01 | 0.13 | 0.13 | 89 | 1011.1 |
| 20260507074559 | 37 | 9 | 3.0 | 5.0 | 0.01 | 0.13 | 0.13 | 89 | 1011.1 |
| 20260507074501 | 37 | 360 | 3.0 | 5.0 | 0.01 | 0.13 | 0.13 | 88 | 1011.0 |
| 20260507074358 | 37 | 355 | 4.0 | 5.0 | 0.01 | 0.13 | 0.13 | 88 | 1011.0 |
| 20260507074259 | 37 | 329 | 5.0 | 5.0 | 0.01 | 0.13 | 0.13 | 88 | 1011.0 |
| 20260507074058 | 37 | 142 | 2.0 | 5.0 | 0.01 | 0.13 | 0.13 | 87 | 1011.1 |
| 20260507074003 | 37 | 142 | 1.0 | 5.0 | 0.02 | 0.13 | 0.13 | 86 | 1011.0 |
| 20260507073858 | 37 | 142 | 1.0 | 5.0 | 0.02 | 0.13 | 0.13 | 87 | 1011.0 |
| 20260507073759 | 37 | 142 | 4.0 | 6.0 | 0.02 | 0.13 | 0.13 | 88 | 1011.1 |
| 20260507073658 | 37 | 247 | 2.0 | 4.0 | 0.02 | 0.13 | 0.13 | 88 | 1010.9 |
| 20260507073500 | 37 | 230 | 3.0 | 4.0 | 0.02 | 0.13 | 0.13 | 88 | 1010.9 |
| 20260507073359 | 37 | 227 | 0.0 | 4.0 | 0.02 | 0.13 | 0.13 | 88 | 1011.0 |
| 20260507073257 | 37 | 227 | 1.0 | 5.0 | 0.02 | 0.13 | 0.13 | 88 | 1011.0 |
| 20260507073157 | 37 | 263 | 1.0 | 7.0 | 0.02 | 0.13 | 0.13 | 88 | 1011.0 |
| 20260507073058 | 37 | 252 | 2.0 | 7.0 | 0.02 | 0.13 | 0.13 | 88 | 1011.0 |
| 20260507072858 | 37 | 251 | 1.0 | 7.0 | 0.02 | 0.13 | 0.13 | 87 | 1011.0 |
| 20260507072758 | 37 | 251 | 1.0 | 7.0 | 0.02 | 0.13 | 0.13 | 87 | 1011.0 |
| 20260507072659 | 37 | 251 | 0.0 | 7.0 | 0.02 | 0.13 | 0.13 | 87 | 1011.0 |
| 20260507072500 | 37 | 251 | 5.0 | 7.0 | 0.02 | 0.13 | 0.13 | 85 | 1010.9 |
| 20260507072058 | 37 | 82 | 5.0 | 7.0 | 0.03 | 0.13 | 0.13 | 88 | 1010.8 |
| 20260507072001 | 37 | 279 | 1.0 | 4.0 | 0.03 | 0.13 | 0.13 | 88 | 1010.8 |
| 20260507071859 | 37 | 279 | 1.0 | 4.0 | 0.03 | 0.13 | 0.13 | 88 | 1010.8 |
| 20260507071758 | 37 | 279 | 4.0 | 4.0 | 0.03 | 0.13 | 0.13 | 88 | 1010.9 |
| 20260507071658 | 37 | 198 | 0.0 | 2.0 | 0.03 | 0.13 | 0.13 | 88 | 1010.9 |
| 20260507071558 | 37 | 198 | 2.0 | 2.0 | 0.03 | 0.13 | 0.13 | 88 | 1010.7 |
| 20260507071500 | 37 | 198 | 1.0 | 2.0 | 0.03 | 0.13 | 0.13 | 87 | 1010.7 |
| 20260507071358 | 37 | 198 | 1.0 | 2.0 | 0.03 | 0.13 | 0.13 | 88 | 1010.7 |
| 20260507071258 | 37 | 198 | 0.0 | 2.0 | 0.03 | 0.13 | 0.13 | 88 | 1010.7 |
| 20260507071158 | 37 | 198 | 2.0 | 2.0 | 0.03 | 0.13 | 0.13 | 88 | 1010.7 |
| 20260507071000 | 37 | 165 | 1.0 | 6.0 | 0.03 | 0.13 | 0.13 | 88 | 1010.7 |
| 20260507070858 | 37 | 165 | 1.0 | 6.0 | 0.03 | 0.13 | 0.13 | 89 | 1010.7 |
| 20260507070759 | 37 | 163 | 1.0 | 6.0 | 0.03 | 0.13 | 0.13 | 89 | 1010.7 |
| 20260507070659 | 37 | 161 | 1.0 | 6.0 | 0.03 | 0.13 | 0.13 | 89 | 1010.7 |
| 20260507070558 | 37 | 161 | 1.0 | 6.0 | 0.03 | 0.13 | 0.13 | 88 | 1010.7 |
| 20260507070500 | 37 | 161 | 1.0 | 6.0 | 0.03 | 0.13 | 0.13 | 88 | 1010.7 |
| 20260507070359 | 37 | 161 | 0.0 | 6.0 | 0.03 | 0.13 | 0.13 | 88 | 1010.7 |
| 20260507070257 | 37 | 161 | 4.0 | 6.0 | 0.04 | 0.13 | 0.13 | 89 | 1010.7 |
| 20260507070158 | 37 | 238 | 2.0 | 3.0 | 0.04 | 0.13 | 0.13 | 88 | 1010.7 |
| 20260507065959 | 37 | 225 | 2.0 | 3.0 | 0.04 | 0.13 | 0.13 | 89 | 1010.7 |
| 20260507065758 | 37 | 224 | 1.0 | 3.0 | 0.04 | 0.13 | 0.13 | 88 | 1010.7 |
| 20260507065658 | 37 | 224 | 0.0 | 3.0 | 0.04 | 0.13 | 0.13 | 88 | 1010.7 |
| 20260507065558 | 37 | 224 | 1.0 | 4.0 | 0.04 | 0.13 | 0.13 | 88 | 1010.8 |
| 20260507065505 | 37 | 224 | 2.0 | 8.0 | 0.04 | 0.13 | 0.13 | 88 | 1010.7 |
| 20260507065258 | 37 | 224 | 2.0 | 8.0 | 0.04 | 0.13 | 0.13 | 88 | 1010.7 |
| 20260507065158 | 37 | 224 | 0.0 | 8.0 | 0.04 | 0.13 | 0.13 | 88 | 1010.7 |
| 20260507065058 | 37 | 203 | 1.0 | 8.0 | 0.04 | 0.13 | 0.13 | 88 | 1010.7 |
| 20260507065000 | 37 | 203 | 1.0 | 8.0 | 0.04 | 0.13 | 0.13 | 88 | 1010.7 |
| 20260507064858 | 37 | 203 | 2.0 | 8.0 | 0.04 | 0.13 | 0.13 | 88 | 1010.6 |
| 20260507064658 | 37 | 204 | 1.0 | 8.0 | 0.03 | 0.12 | 0.12 | 88 | 1010.6 |
| 20260507064559 | 37 | 145 | 6.0 | 8.0 | 0.03 | 0.12 | 0.12 | 89 | 1010.6 |
| 20260507064358 | 37 | 161 | 5.0 | 7.0 | 0.03 | 0.12 | 0.12 | 90 | 1010.7 |
| 20260507064258 | 37 | 162 | 4.0 | 7.0 | 0.03 | 0.12 | 0.12 | 91 | 1010.7 |
| 20260507064159 | 37 | 182 | 3.0 | 6.0 | 0.03 | 0.12 | 0.12 | 91 | 1010.7 |
| 20260507064059 | 37 | 78 | 1.0 | 6.0 | 0.03 | 0.12 | 0.12 | 92 | 1010.7 |
| 20260507064000 | 37 | 78 | 2.0 | 6.0 | 0.02 | 0.11 | 0.11 | 92 | 1010.7 |
| 20260507063858 | 37 | 78 | 2.0 | 6.0 | 0.02 | 0.11 | 0.11 | 92 | 1010.6 |
| 20260507063759 | 37 | 78 | 2.0 | 6.0 | 0.02 | 0.11 | 0.11 | 92 | 1010.7 |
| 20260507063659 | 37 | 78 | 1.0 | 6.0 | 0.02 | 0.11 | 0.11 | 92 | 1010.7 |
| 20260507063359 | 37 | 108 | 1.0 | 3.0 | 0.02 | 0.11 | 0.11 | 92 | 1010.6 |
| 20260507063258 | 37 | 108 | 0.0 | 2.0 | 0.02 | 0.11 | 0.11 | 92 | 1010.6 |
| 20260507063059 | 37 | 108 | 0.0 | 2.0 | 0.02 | 0.11 | 0.11 | 92 | 1010.6 |
| 20260507062859 | 37 | 108 | 1.0 | 2.0 | 0.02 | 0.11 | 0.11 | 92 | 1010.6 |
| 20260507062658 | 37 | 108 | 1.0 | 2.0 | 0.02 | 0.11 | 0.11 | 92 | 1010.6 |
| 20260507062558 | 37 | 108 | 0.0 | 2.0 | 0.02 | 0.11 | 0.11 | 92 | 1010.6 |
| 20260507062501 | 37 | 108 | 1.0 | 2.0 | 0.02 | 0.11 | 0.11 | 92 | 1010.6 |
| 20260507062359 | 37 | 108 | 1.0 | 2.0 | 0.02 | 0.11 | 0.11 | 91 | 1010.6 |
| 20260507062157 | 37 | 108 | 0.0 | 2.0 | 0.01 | 0.10 | 0.10 | 91 | 1010.5 |
| 20260507062058 | 37 | 108 | 0.0 | 2.0 | 0.01 | 0.10 | 0.10 | 91 | 1010.6 |
| 20260507062000 | 37 | 108 | 0.0 | 2.0 | 0.01 | 0.10 | 0.10 | 91 | 1010.5 |
| 20260507061858 | 37 | 108 | 2.0 | 2.0 | 0.01 | 0.10 | 0.10 | 91 | 1010.5 |
| 20260507061659 | 37 | 108 | 0.0 | 2.0 | 0.01 | 0.10 | 0.10 | 91 | 1010.5 |
| 20260507061559 | 37 | 108 | 0.0 | 2.0 | 0.01 | 0.10 | 0.10 | 91 | 1010.5 |
| 20260507061502 | 37 | 108 | 1.0 | 2.0 | 0.01 | 0.10 | 0.10 | 91 | 1010.5 |
| 20260507061259 | 37 | 108 | 2.0 | 2.0 | 0.01 | 0.10 | 0.10 | 91 | 1010.5 |
| 20260507061159 | 37 | 108 | 1.0 | 3.0 | 0.01 | 0.10 | 0.10 | 91 | 1010.5 |
| 20260507061000 | 37 | 108 | 1.0 | 3.0 | 0.01 | 0.10 | 0.10 | 91 | 1010.5 |
| 20260507060859 | 37 | 108 | 0.0 | 3.0 | 0.01 | 0.10 | 0.10 | 91 | 1010.5 |
| 20260507060758 | 37 | 108 | 1.0 | 3.0 | 0.01 | 0.10 | 0.10 | 91 | 1010.5 |
| 20260507060659 | 37 | 108 | 2.0 | 3.0 | 0.01 | 0.10 | 0.10 | 91 | 1010.5 |
| 20260507060558 | 37 | 108 | 1.0 | 3.0 | 0.01 | 0.10 | 0.10 | 91 | 1010.5 |
| 20260507060459 | 37 | 108 | 0.0 | 3.0 | 0.01 | 0.10 | 0.10 | 91 | 1010.5 |
| 20260507060259 | 37 | 108 | 2.0 | 2.0 | 0.01 | 0.09 | 0.09 | 91 | 1010.5 |
| 20260507060158 | 37 | 108 | 1.0 | 1.0 | 0.01 | 0.09 | 0.09 | 91 | 1010.5 |
| 20260507055758 | 37 | 108 | 0.0 | 4.0 | 0.01 | 0.09 | 0.09 | 90 | 1010.4 |
| 20260507055659 | 37 | 108 | 0.0 | 4.0 | 0.01 | 0.09 | 0.09 | 90 | 1010.4 |
| 20260507055558 | 37 | 108 | 0.0 | 4.0 | 0.01 | 0.09 | 0.09 | 90 | 1010.4 |
| 20260507055500 | 37 | 108 | 0.0 | 4.0 | 0.01 | 0.09 | 0.09 | 90 | 1010.4 |
| 20260507055358 | 37 | 108 | 0.0 | 4.0 | 0.01 | 0.09 | 0.09 | 91 | 1010.3 |
| 20260507055258 | 37 | 108 | 1.0 | 4.0 | 0.01 | 0.09 | 0.09 | 91 | 1010.3 |
| 20260507055201 | 37 | 108 | 2.0 | 4.0 | 0.01 | 0.09 | 0.09 | 91 | 1010.4 |
| 20260507055057 | 37 | 109 | 2.0 | 4.0 | 0.01 | 0.09 | 0.09 | 91 | 1010.3 |
| 20260507055000 | 37 | 142 | 2.0 | 3.0 | 0.01 | 0.09 | 0.09 | 91 | 1010.3 |
| 20260507054858 | 37 | 144 | 2.0 | 3.0 | 0.01 | 0.09 | 0.09 | 91 | 1010.3 |
| 20260507054758 | 37 | 144 | 2.0 | 2.0 | 0.01 | 0.09 | 0.09 | 92 | 1010.3 |
| 20260507054658 | 37 | 144 | 0.0 | 2.0 | 0.01 | 0.09 | 0.09 | 92 | 1010.3 |
| 20260507054557 | 37 | 144 | 0.0 | 2.0 | 0.01 | 0.09 | 0.09 | 92 | 1010.3 |
| 20260507054500 | 37 | 144 | 0.0 | 2.0 | 0.01 | 0.09 | 0.09 | 92 | 1010.3 |
| 20260507054358 | 37 | 144 | 0.0 | 2.0 | 0.01 | 0.09 | 0.09 | 92 | 1010.3 |
| 20260507054259 | 37 | 144 | 0.0 | 2.0 | 0.01 | 0.09 | 0.09 | 92 | 1010.3 |
| 20260507054159 | 37 | 144 | 0.0 | 2.0 | 0.01 | 0.09 | 0.09 | 91 | 1010.2 |
| 20260507054058 | 37 | 144 | 0.0 | 2.0 | 0.01 | 0.09 | 0.09 | 91 | 1010.2 |
| 20260507054003 | 37 | 144 | 0.0 | 2.0 | 0.01 | 0.09 | 0.09 | 91 | 1010.2 |
| 20260507053858 | 37 | 144 | 0.0 | 2.0 | 0.01 | 0.09 | 0.09 | 92 | 1010.2 |
| 20260507053758 | 37 | 144 | 1.0 | 2.0 | 0.01 | 0.09 | 0.09 | 92 | 1010.3 |
| 20260507053658 | 37 | 144 | 0.0 | 2.0 | 0.01 | 0.09 | 0.09 | 92 | 1010.2 |
| 20260507053500 | 37 | 144 | 0.0 | 2.0 | 0.01 | 0.09 | 0.09 | 91 | 1010.2 |
| 20260507053359 | 37 | 144 | 1.0 | 2.0 | 0.01 | 0.09 | 0.09 | 91 | 1010.2 |
| 20260507053258 | 37 | 144 | 1.0 | 2.0 | 0.01 | 0.09 | 0.09 | 91 | 1010.2 |
| 20260507053158 | 37 | 144 | 1.0 | 2.0 | 0.01 | 0.09 | 0.09 | 91 | 1010.2 |
| 20260507053058 | 37 | 144 | 2.0 | 2.0 | 0.01 | 0.09 | 0.09 | 91 | 1010.2 |
| 20260507053001 | 37 | 144 | 1.0 | 2.0 | 0.01 | 0.09 | 0.09 | 91 | 1010.2 |
| 20260507052859 | 37 | 144 | 0.0 | 2.0 | 0.01 | 0.09 | 0.09 | 91 | 1010.2 |
| 20260507052757 | 37 | 144 | 1.0 | 2.0 | 0.01 | 0.09 | 0.09 | 91 | 1010.2 |
| 20260507052700 | 37 | 144 | 1.0 | 2.0 | 0.01 | 0.09 | 0.09 | 91 | 1010.2 |
| 20260507052558 | 37 | 144 | 1.0 | 2.0 | 0.01 | 0.09 | 0.09 | 91 | 1010.1 |
| 20260507052500 | 37 | 144 | 1.0 | 2.0 | 0.01 | 0.09 | 0.09 | 91 | 1010.2 |
| 20260507052158 | 37 | 144 | 0.0 | 2.0 | 0.01 | 0.09 | 0.09 | 90 | 1010.1 |
| 20260507052058 | 37 | 144 | 1.0 | 2.0 | 0.01 | 0.09 | 0.09 | 90 | 1010.2 |
| 20260507052001 | 37 | 144 | 2.0 | 2.0 | 0.01 | 0.09 | 0.09 | 90 | 1010.2 |
| 20260507051757 | 37 | 144 | 1.0 | 2.0 | 0.02 | 0.09 | 0.09 | 90 | 1010.1 |
| 20260507051558 | 37 | 144 | 1.0 | 3.0 | 0.02 | 0.09 | 0.09 | 90 | 1010.1 |
| 20260507051500 | 37 | 144 | 2.0 | 4.0 | 0.02 | 0.09 | 0.09 | 90 | 1010.1 |
| 20260507051357 | 37 | 144 | 1.0 | 4.0 | 0.02 | 0.09 | 0.09 | 90 | 1010.1 |
| 20260507051259 | 37 | 144 | 1.0 | 4.0 | 0.02 | 0.09 | 0.09 | 90 | 1010.1 |
| 20260507051159 | 37 | 144 | 1.0 | 4.0 | 0.02 | 0.09 | 0.09 | 90 | 1010.1 |
| 20260507051058 | 37 | 144 | 1.0 | 4.0 | 0.02 | 0.09 | 0.09 | 90 | 1010.1 |
| 20260507051000 | 37 | 144 | 1.0 | 4.0 | 0.03 | 0.09 | 0.09 | 90 | 1010.1 |
| 20260507050858 | 37 | 144 | 1.0 | 4.0 | 0.03 | 0.09 | 0.09 | 90 | 1010.1 |
| 20260507050758 | 37 | 144 | 2.0 | 4.0 | 0.03 | 0.09 | 0.09 | 90 | 1010.0 |
| 20260507050658 | 37 | 144 | 2.0 | 4.0 | 0.03 | 0.09 | 0.09 | 90 | 1010.0 |
| 20260507050459 | 37 | 137 | 2.0 | 4.0 | 0.04 | 0.09 | 0.09 | 90 | 1010.1 |
| 20260507050358 | 37 | 137 | 4.0 | 4.0 | 0.04 | 0.08 | 0.08 | 90 | 1010.0 |
| 20260507050159 | 37 | 127 | 2.0 | 4.0 | 0.04 | 0.08 | 0.08 | 90 | 1010.0 |
| 20260507050058 | 37 | 127 | 2.0 | 4.0 | 0.05 | 0.08 | 0.08 | 90 | 1010.0 |
| 20260507045958 | 37 | 126 | 2.0 | 4.0 | 0.05 | 0.08 | 0.08 | 90 | 1010.1 |
| 20260507045857 | 37 | 126 | 2.0 | 4.0 | 0.05 | 0.08 | 0.08 | 90 | 1010.0 |
| 20260507045757 | 37 | 126 | 1.0 | 4.0 | 0.05 | 0.08 | 0.08 | 90 | 1010.0 |
| 20260507045657 | 37 | 126 | 1.0 | 4.0 | 0.06 | 0.08 | 0.08 | 89 | 1010.0 |
| 20260507045557 | 37 | 126 | 3.0 | 4.0 | 0.06 | 0.08 | 0.08 | 90 | 1010.0 |
| 20260507045459 | 37 | 126 | 2.0 | 2.0 | 0.07 | 0.08 | 0.08 | 90 | 1010.1 |
| 20260507045357 | 37 | 126 | 0.0 | 2.0 | 0.07 | 0.08 | 0.08 | 90 | 1010.1 |
| 20260507045258 | 37 | 126 | 1.0 | 1.0 | 0.07 | 0.08 | 0.08 | 90 | 1010.1 |
| 20260507045157 | 37 | 126 | 1.0 | 1.0 | 0.07 | 0.08 | 0.08 | 90 | 1010.1 |
| 20260507045057 | 37 | 126 | 1.0 | 1.0 | 0.07 | 0.08 | 0.08 | 90 | 1010.1 |
| 20260507044959 | 37 | 126 | 0.0 | 1.0 | 0.08 | 0.08 | 0.08 | 90 | 1010.1 |
| 20260507044857 | 37 | 126 | 0.0 | 2.0 | 0.08 | 0.08 | 0.08 | 90 | 1010.1 |
| 20260507044757 | 37 | 126 | 0.0 | 3.0 | 0.08 | 0.08 | 0.08 | 90 | 1010.1 |
| 20260507044658 | 37 | 126 | 0.0 | 3.0 | 0.08 | 0.08 | 0.08 | 90 | 1010.1 |
| 20260507044557 | 37 | 126 | 0.0 | 3.0 | 0.08 | 0.08 | 0.08 | 90 | 1010.1 |
| 20260507044358 | 37 | 126 | 0.0 | 3.0 | 0.08 | 0.08 | 0.08 | 89 | 1010.1 |
| 20260507044257 | 37 | 126 | 0.0 | 3.0 | 0.08 | 0.08 | 0.08 | 89 | 1010.1 |
| 20260507044157 | 37 | 126 | 1.0 | 3.0 | 0.08 | 0.08 | 0.08 | 89 | 1010.1 |
| 20260507044058 | 37 | 126 | 1.0 | 3.0 | 0.08 | 0.08 | 0.08 | 89 | 1010.1 |
| 20260507043959 | 37 | 126 | 2.0 | 3.0 | 0.08 | 0.08 | 0.08 | 89 | 1010.1 |
| 20260507043756 | 37 | 126 | 1.0 | 3.0 | 0.08 | 0.08 | 0.08 | 89 | 1010.1 |
| 20260507043657 | 37 | 126 | 1.0 | 3.0 | 0.08 | 0.08 | 0.08 | 89 | 1010.0 |
| 20260507043559 | 37 | 126 | 1.0 | 3.0 | 0.08 | 0.08 | 0.08 | 89 | 1010.0 |
| 20260507043458 | 37 | 126 | 1.0 | 3.0 | 0.08 | 0.08 | 0.08 | 88 | 1010.1 |
| 20260507043357 | 37 | 126 | 2.0 | 3.0 | 0.08 | 0.08 | 0.08 | 88 | 1010.1 |
| 20260507043257 | 37 | 126 | 3.0 | 3.0 | 0.08 | 0.08 | 0.08 | 89 | 1010.1 |
| 20260507043157 | 37 | 126 | 2.0 | 4.0 | 0.08 | 0.08 | 0.08 | 89 | 1010.1 |
| 20260507043057 | 37 | 126 | 2.0 | 4.0 | 0.08 | 0.08 | 0.08 | 89 | 1010.1 |
| 20260507043000 | 37 | 126 | 3.0 | 4.0 | 0.08 | 0.08 | 0.08 | 89 | 1010.1 |
| 20260507042858 | 37 | 126 | 2.0 | 4.0 | 0.08 | 0.08 | 0.08 | 89 | 1010.1 |
| 20260507042757 | 37 | 126 | 2.0 | 6.0 | 0.08 | 0.08 | 0.08 | 89 | 1010.1 |
| 20260507042657 | 37 | 126 | 1.0 | 6.0 | 0.08 | 0.08 | 0.08 | 88 | 1010.2 |
| 20260507042557 | 37 | 126 | 1.0 | 6.0 | 0.08 | 0.08 | 0.08 | 88 | 1010.1 |
| 20260507042357 | 37 | 125 | 3.0 | 6.0 | 0.08 | 0.08 | 0.08 | 88 | 1010.1 |
| 20260507042257 | 37 | 115 | 3.0 | 6.0 | 0.08 | 0.08 | 0.08 | 88 | 1010.2 |
| 20260507041958 | 37 | 107 | 4.0 | 6.0 | 0.07 | 0.07 | 0.07 | 88 | 1010.2 |
| 20260507041858 | 37 | 91 | 6.0 | 6.0 | 0.07 | 0.07 | 0.07 | 88 | 1010.2 |
| 20260507041757 | 37 | 96 | 4.0 | 6.0 | 0.07 | 0.07 | 0.07 | 87 | 1010.2 |
| 20260507041658 | 37 | 95 | 3.0 | 6.0 | 0.07 | 0.07 | 0.07 | 87 | 1010.2 |
| 20260507041558 | 37 | 99 | 2.0 | 6.0 | 0.07 | 0.07 | 0.07 | 87 | 1010.2 |
| 20260507041458 | 37 | 115 | 4.0 | 6.0 | 0.07 | 0.07 | 0.07 | 87 | 1010.2 |
| 20260507041358 | 37 | 155 | 2.0 | 5.0 | 0.07 | 0.07 | 0.07 | 87 | 1010.2 |
| 20260507041258 | 37 | 156 | 2.0 | 5.0 | 0.07 | 0.07 | 0.07 | 87 | 1010.2 |
| 20260507041158 | 37 | 161 | 4.0 | 9.0 | 0.07 | 0.07 | 0.07 | 87 | 1010.2 |
| 20260507041058 | 37 | 161 | 4.0 | 9.0 | 0.07 | 0.07 | 0.07 | 87 | 1010.2 |
| 20260507040958 | 37 | 163 | 5.0 | 9.0 | 0.06 | 0.06 | 0.06 | 86 | 1010.2 |
| 20260507040857 | 37 | 150 | 3.0 | 9.0 | 0.06 | 0.06 | 0.06 | 86 | 1010.2 |
| 20260507040757 | 37 | 150 | 3.0 | 9.0 | 0.06 | 0.06 | 0.06 | 86 | 1010.2 |
| 20260507040658 | 37 | 147 | 4.0 | 9.0 | 0.06 | 0.06 | 0.06 | 86 | 1010.3 |
| 20260507040558 | 37 | 178 | 2.0 | 12.0 | 0.05 | 0.05 | 0.05 | 86 | 1010.2 |
| 20260507040500 | 37 | 178 | 3.0 | 12.0 | 0.05 | 0.05 | 0.05 | 85 | 1010.2 |
| 20260507040401 | 37 | 178 | 2.0 | 13.0 | 0.04 | 0.04 | 0.04 | 85 | 1010.2 |
| 20260507040156 | 38 | 151 | 5.0 | 14.0 | 0.04 | 0.04 | 0.04 | 85 | 1010.2 |
| 20260507040059 | 38 | 181 | 4.0 | 14.0 | 0.03 | 0.03 | 0.03 | 84 | 1010.1 |
| 20260507035959 | 38 | 168 | 5.0 | 14.0 | 0.03 | 0.03 | 0.03 | 84 | 1010.2 |
| 20260507035857 | 38 | 191 | 4.0 | 14.0 | 0.03 | 0.03 | 0.03 | 83 | 1010.1 |
| 20260507035757 | 38 | 167 | 9.0 | 14.0 | 0.03 | 0.03 | 0.03 | 83 | 1010.1 |
| 20260507035658 | 39 | 194 | 8.0 | 15.0 | 0.02 | 0.02 | 0.02 | 82 | 1010.1 |
| 20260507035556 | 39 | 155 | 13.0 | 15.0 | 0.02 | 0.02 | 0.02 | 81 | 1010.1 |
| 20260507035459 | 39 | 194 | 10.0 | 15.0 | 0.01 | 0.01 | 0.01 | 81 | 1010.1 |
| 20260507035358 | 40 | 184 | 7.0 | 15.0 | 0.01 | 0.01 | 0.01 | 80 | 1010.0 |
| 20260507035258 | 40 | 214 | 8.0 | 15.0 | 0.01 | 0.01 | 0.01 | 79 | 1010.0 |
| 20260507035158 | 40 | 161 | 7.0 | 15.0 | 0.01 | 0.01 | 0.01 | 78 | 1010.0 |
| 20260507035057 | 41 | 189 | 5.0 | 15.0 | 0.01 | 0.01 | 0.01 | 77 | 1010.0 |
| 20260507035000 | 41 | 205 | 9.0 | 15.0 | 0.00 | 0.00 | 0.00 | 75 | 1009.9 |
| 20260507034857 | 41 | 240 | 11.0 | 11.0 | 0.00 | 0.00 | 0.00 | 73 | 1009.9 |
| 20260507034757 | 42 | 178 | 6.0 | 10.0 | 0.00 | 0.00 | 0.00 | 71 | 1009.9 |
| 20260507034658 | 42 | 180 | 7.0 | 10.0 | 0.00 | 0.00 | 0.00 | 71 | 1009.8 |
| 20260507034557 | 42 | 202 | 9.0 | 11.0 | 0.00 | 0.00 | 0.00 | 71 | 1009.8 |
| 20260507034459 | 42 | 217 | 7.0 | 10.0 | 0.00 | 0.00 | 0.00 | 70 | 1009.7 |
| 20260507034357 | 42 | 238 | 10.0 | 10.0 | 0.00 | 0.00 | 0.00 | 69 | 1009.6 |
| 20260507034257 | 42 | 165 | 4.0 | 9.0 | 0.00 | 0.00 | 0.00 | 69 | 1009.6 |
| 20260507034157 | 42 | 151 | 4.0 | 9.0 | 0.00 | 0.00 | 0.00 | 68 | 1009.6 |
| 20260507033959 | 42 | 200 | 7.0 | 8.0 | 0.00 | 0.00 | 0.00 | 70 | 1009.5 |
| 20260507033856 | 42 | 171 | 7.0 | 7.0 | 0.00 | 0.00 | 0.00 | 71 | 1009.5 |
| 20260507033756 | 42 | 274 | 3.0 | 7.0 | 0.00 | 0.00 | 0.00 | 71 | 1009.5 |
| 20260507033558 | 42 | 232 | 6.0 | 8.0 | 0.00 | 0.00 | 0.00 | 71 | 1009.5 |
| 20260507033500 | 42 | 279 | 1.0 | 7.0 | 0.00 | 0.00 | 0.00 | 71 | 1009.4 |
| 20260507033257 | 43 | 273 | 4.0 | 6.0 | 0.00 | 0.00 | 0.00 | 71 | 1009.3 |
| 20260507033158 | 43 | 273 | 3.0 | 4.0 | 0.00 | 0.00 | 0.00 | 71 | 1009.3 |
| 20260507033057 | 43 | 250 | 4.0 | 4.0 | 0.00 | 0.00 | 0.00 | 71 | 1009.3 |
| 20260507032959 | 43 | 99 | 2.0 | 3.0 | 0.00 | 0.00 | 0.00 | 71 | 1009.2 |
| 20260507032857 | 43 | 99 | 0.0 | 3.0 | 0.00 | 0.00 | 0.00 | 71 | 1009.3 |
| 20260507032657 | 42 | 99 | 1.0 | 8.0 | 0.00 | 0.00 | 0.00 | 71 | 1009.2 |
| 20260507032459 | 42 | 123 | 2.0 | 9.0 | 0.00 | 0.00 | 0.00 | 71 | 1009.2 |
| 20260507032358 | 42 | 123 | 0.0 | 9.0 | 0.00 | 0.00 | 0.00 | 71 | 1009.1 |
| 20260507032256 | 42 | 123 | 1.0 | 9.0 | 0.00 | 0.00 | 0.00 | 71 | 1009.1 |
| 20260507032158 | 42 | 123 | 2.0 | 9.0 | 0.00 | 0.00 | 0.00 | 71 | 1009.1 |
| 20260507032058 | 43 | 124 | 1.0 | 9.0 | 0.00 | 0.00 | 0.00 | 71 | 1009.2 |
| 20260507032006 | 43 | 124 | 0.0 | 9.0 | 0.00 | 0.00 | 0.00 | 71 | 1009.2 |
| 20260507031858 | 43 | 124 | 3.0 | 9.0 | 0.00 | 0.00 | 0.00 | 71 | 1009.2 |
| 20260507031758 | 42 | 140 | 4.0 | 9.0 | 0.00 | 0.00 | 0.00 | 71 | 1009.2 |
| 20260507031659 | 43 | 158 | 5.0 | 5.0 | 0.00 | 0.00 | 0.00 | 72 | 1009.2 |
| 20260507031557 | 43 | 20 | 2.0 | 5.0 | 0.00 | 0.00 | 0.00 | 74 | 1009.2 |
| 20260507031459 | 43 | 19 | 2.0 | 5.0 | 0.00 | 0.00 | 0.00 | 74 | 1009.2 |
| 20260507031357 | 43 | 15 | 3.0 | 5.0 | 0.00 | 0.00 | 0.00 | 73 | 1009.1 |
| 20260507031256 | 43 | 13 | 2.0 | 5.0 | 0.00 | 0.00 | 0.00 | 73 | 1009.2 |
| 20260507031158 | 43 | 13 | 4.0 | 7.0 | 0.00 | 0.00 | 0.00 | 73 | 1009.2 |
| 20260507031056 | 43 | 17 | 3.0 | 7.0 | 0.00 | 0.00 | 0.00 | 72 | 1009.2 |
| 20260507030958 | 43 | 12 | 3.0 | 7.0 | 0.00 | 0.00 | 0.00 | 71 | 1009.1 |
| 20260507030857 | 43 | 306 | 3.0 | 7.0 | 0.00 | 0.00 | 0.00 | 71 | 1009.1 |
| 20260507030758 | 43 | 279 | 3.0 | 7.0 | 0.00 | 0.00 | 0.00 | 71 | 1009.1 |
| 20260507030459 | 43 | 269 | 2.0 | 7.0 | 0.00 | 0.00 | 0.00 | 70 | 1009.2 |
| 20260507030356 | 43 | 269 | 6.0 | 7.0 | 0.00 | 0.00 | 0.00 | 68 | 1009.1 |
| 20260507030258 | 43 | 191 | 3.0 | 7.0 | 0.00 | 0.00 | 0.00 | 66 | 1009.1 |
| 20260507030158 | 43 | 240 | 2.0 | 7.0 | 0.00 | 0.00 | 0.00 | 66 | 1009.1 |
| 20260507025959 | 43 | 257 | 3.0 | 7.0 | 0.00 | 0.00 | 0.00 | 67 | 1009.1 |
| 20260507025858 | 43 | 257 | 4.0 | 7.0 | 0.00 | 0.00 | 0.00 | 67 | 1009.0 |
| 20260507025757 | 43 | 269 | 1.0 | 7.0 | 0.00 | 0.00 | 0.00 | 66 | 1009.1 |
| 20260507025656 | 43 | 134 | 0.0 | 10.0 | 0.00 | 0.00 | 0.00 | 66 | 1009.0 |
| 20260507025557 | 43 | 134 | 2.0 | 10.0 | 0.00 | 0.00 | 0.00 | 65 | 1009.0 |
| 20260507025458 | 43 | 134 | 7.0 | 10.0 | 0.00 | 0.00 | 0.00 | 65 | 1009.0 |
| 20260507025357 | 43 | 134 | 4.0 | 10.0 | 0.00 | 0.00 | 0.00 | 66 | 1009.0 |
| 20260507025258 | 43 | 288 | 1.0 | 10.0 | 0.00 | 0.00 | 0.00 | 67 | 1009.0 |
| 20260507025158 | 43 | 294 | 5.0 | 10.0 | 0.00 | 0.00 | 0.00 | 65 | 1009.0 |
| 20260507024959 | 43 | 42 | 5.0 | 10.0 | 0.00 | 0.00 | 0.00 | 67 | 1009.1 |
| 20260507024858 | 43 | 38 | 7.0 | 10.0 | 0.00 | 0.00 | 0.00 | 70 | 1009.0 |
| 20260507024658 | 43 | 340 | 3.0 | 6.0 | 0.00 | 0.00 | 0.00 | 70 | 1009.0 |
| 20260507024459 | 43 | 316 | 4.0 | 7.0 | 0.00 | 0.00 | 0.00 | 71 | 1009.0 |
| 20260507024358 | 43 | 308 | 3.0 | 7.0 | 0.00 | 0.00 | 0.00 | 72 | 1009.0 |
| 20260507024256 | 43 | 308 | 1.0 | 7.0 | 0.00 | 0.00 | 0.00 | 71 | 1009.0 |
| 20260507024157 | 43 | 307 | 1.0 | 7.0 | 0.00 | 0.00 | 0.00 | 71 | 1009.0 |
| 20260507024058 | 43 | 295 | 2.0 | 7.0 | 0.00 | 0.00 | 0.00 | 71 | 1009.0 |
| 20260507023958 | 43 | 296 | 3.0 | 7.0 | 0.00 | 0.00 | 0.00 | 71 | 1009.0 |
| 20260507023857 | 43 | 295 | 3.0 | 7.0 | 0.00 | 0.00 | 0.00 | 71 | 1009.0 |
| 20260507023757 | 43 | 289 | 2.0 | 7.0 | 0.00 | 0.00 | 0.00 | 69 | 1009.0 |
| 20260507023658 | 43 | 304 | 4.0 | 7.0 | 0.00 | 0.00 | 0.00 | 68 | 1009.0 |
| 20260507023557 | 43 | 306 | 4.0 | 7.0 | 0.00 | 0.00 | 0.00 | 68 | 1008.9 |
| 20260507023500 | 43 | 313 | 4.0 | 6.0 | 0.00 | 0.00 | 0.00 | 68 | 1008.9 |
| 20260507023358 | 43 | 288 | 7.0 | 7.0 | 0.00 | 0.00 | 0.00 | 68 | 1008.8 |
| 20260507023257 | 43 | 303 | 2.0 | 5.0 | 0.00 | 0.00 | 0.00 | 68 | 1008.9 |
| 20260507023157 | 43 | 285 | 3.0 | 9.0 | 0.00 | 0.00 | 0.00 | 68 | 1009.0 |
| 20260507023056 | 43 | 262 | 2.0 | 9.0 | 0.00 | 0.00 | 0.00 | 69 | 1008.9 |
| 20260507022958 | 43 | 209 | 3.0 | 11.0 | 0.00 | 0.00 | 0.00 | 71 | 1008.9 |
| 20260507022756 | 43 | 183 | 0.0 | 11.0 | 0.00 | 0.00 | 0.00 | 72 | 1008.9 |
| 20260507022657 | 43 | 183 | 1.0 | 11.0 | 0.00 | 0.00 | 0.00 | 72 | 1009.0 |
| 20260507022557 | 43 | 183 | 1.0 | 11.0 | 0.00 | 0.00 | 0.00 | 73 | 1008.9 |
| 20260507022459 | 43 | 183 | 0.0 | 11.0 | 0.00 | 0.00 | 0.00 | 73 | 1008.9 |
| 20260507022358 | 43 | 183 | 4.0 | 11.0 | 0.00 | 0.00 | 0.00 | 72 | 1008.8 |
| 20260507022157 | 43 | 136 | 7.0 | 11.0 | 0.00 | 0.00 | 0.00 | 67 | 1008.9 |
| 20260507022056 | 43 | 181 | 3.0 | 7.0 | 0.00 | 0.00 | 0.00 | 70 | 1008.9 |
| 20260507022000 | 43 | 263 | 1.0 | 7.0 | 0.00 | 0.00 | 0.00 | 69 | 1009.0 |
| 20260507021858 | 43 | 272 | 3.0 | 7.0 | 0.00 | 0.00 | 0.00 | 71 | 1008.9 |
| 20260507021758 | 44 | 272 | 0.0 | 7.0 | 0.00 | 0.00 | 0.00 | 71 | 1008.9 |
| 20260507021658 | 44 | 272 | 2.0 | 7.0 | 0.00 | 0.00 | 0.00 | 68 | 1008.8 |
| 20260507021459 | 44 | 272 | 4.0 | 7.0 | 0.00 | 0.00 | 0.00 | 66 | 1008.9 |
| 20260507021358 | 44 | 275 | 3.0 | 7.0 | 0.00 | 0.00 | 0.00 | 66 | 1008.8 |
| 20260507021258 | 44 | 277 | 3.0 | 7.0 | 0.00 | 0.00 | 0.00 | 66 | 1008.8 |
| 20260507021157 | 44 | 278 | 7.0 | 7.0 | 0.00 | 0.00 | 0.00 | 67 | 1008.8 |
| 20260507020958 | 44 | 300 | 3.0 | 5.0 | 0.00 | 0.00 | 0.00 | 68 | 1008.8 |
| 20260507020858 | 44 | 183 | 1.0 | 8.0 | 0.00 | 0.00 | 0.00 | 68 | 1008.8 |
| 20260507020758 | 44 | 183 | 2.0 | 8.0 | 0.00 | 0.00 | 0.00 | 68 | 1008.8 |
| 20260507020657 | 43 | 183 | 0.0 | 8.0 | 0.00 | 0.00 | 0.00 | 69 | 1008.8 |
| 20260507020459 | 43 | 183 | 1.0 | 8.0 | 0.00 | 0.00 | 0.00 | 69 | 1008.8 |
| 20260507020256 | 43 | 180 | 2.0 | 8.0 | 0.00 | 0.00 | 0.00 | 67 | 1008.8 |
| 20260507020159 | 43 | 175 | 2.0 | 8.0 | 0.00 | 0.00 | 0.00 | 68 | 1008.8 |
| 20260507020058 | 43 | 167 | 3.0 | 8.0 | 0.00 | 0.00 | 0.00 | 68 | 1008.8 |
| 20260507015959 | 43 | 171 | 7.0 | 9.0 | 0.00 | 0.00 | 0.00 | 70 | 1008.8 |
| 20260507015656 | 43 | 103 | 6.0 | 6.0 | 0.00 | 0.00 | 0.00 | 79 | 1008.8 |
| 20260507015557 | 43 | 311 | 1.0 | 3.0 | 0.00 | 0.00 | 0.00 | 79 | 1008.7 |
| 20260507015458 | 43 | 312 | 2.0 | 3.0 | 0.00 | 0.00 | 0.00 | 78 | 1008.7 |
| 20260507015358 | 43 | 313 | 2.0 | 3.0 | 0.00 | 0.00 | 0.00 | 78 | 1008.7 |
| 20260507015257 | 43 | 312 | 0.0 | 3.0 | 0.00 | 0.00 | 0.00 | 77 | 1008.8 |
| 20260507015159 | 43 | 313 | 2.0 | 3.0 | 0.00 | 0.00 | 0.00 | 77 | 1008.7 |
| 20260507015058 | 43 | 312 | 1.0 | 3.0 | 0.00 | 0.00 | 0.00 | 78 | 1008.7 |
| 20260507014959 | 43 | 312 | 1.0 | 3.0 | 0.00 | 0.00 | 0.00 | 77 | 1008.8 |
| 20260507014757 | 43 | 312 | 1.0 | 3.0 | 0.00 | 0.00 | 0.00 | 77 | 1008.7 |
| 20260507014658 | 43 | 317 | 1.0 | 3.0 | 0.00 | 0.00 | 0.00 | 77 | 1008.7 |
| 20260507014557 | 43 | 318 | 1.0 | 3.0 | 0.00 | 0.00 | 0.00 | 77 | 1008.7 |
| 20260507014459 | 43 | 317 | 2.0 | 3.0 | 0.00 | 0.00 | 0.00 | 77 | 1008.7 |
| 20260507014357 | 43 | 317 | 2.0 | 3.0 | 0.00 | 0.00 | 0.00 | 78 | 1008.7 |
| 20260507014258 | 43 | 317 | 2.0 | 3.0 | 0.00 | 0.00 | 0.00 | 77 | 1008.6 |
| 20260507014158 | 43 | 317 | 1.0 | 3.0 | 0.00 | 0.00 | 0.00 | 76 | 1008.7 |
| 20260507014057 | 43 | 317 | 1.0 | 3.0 | 0.00 | 0.00 | 0.00 | 76 | 1008.7 |
| 20260507013958 | 43 | 317 | 0.0 | 3.0 | 0.00 | 0.00 | 0.00 | 76 | 1008.6 |
| 20260507013858 | 43 | 317 | 1.0 | 3.0 | 0.00 | 0.00 | 0.00 | 76 | 1008.7 |
| 20260507013759 | 43 | 317 | 2.0 | 3.0 | 0.00 | 0.00 | 0.00 | 76 | 1008.7 |
| 20260507013558 | 43 | 317 | 1.0 | 3.0 | 0.00 | 0.00 | 0.00 | 76 | 1008.7 |
| 20260507013459 | 43 | 317 | 0.0 | 3.0 | 0.00 | 0.00 | 0.00 | 77 | 1008.7 |
| 20260507013357 | 43 | 317 | 2.0 | 3.0 | 0.00 | 0.00 | 0.00 | 78 | 1008.6 |
| 20260507013158 | 43 | 317 | 2.0 | 3.0 | 0.00 | 0.00 | 0.00 | 79 | 1008.7 |
| 20260507013058 | 43 | 317 | 2.0 | 3.0 | 0.00 | 0.00 | 0.00 | 79 | 1008.6 |
| 20260507012959 | 43 | 317 | 0.0 | 3.0 | 0.00 | 0.00 | 0.00 | 79 | 1008.7 |
| 20260507012859 | 42 | 317 | 2.0 | 3.0 | 0.00 | 0.00 | 0.00 | 80 | 1008.7 |
| 20260507012657 | 42 | 317 | 0.0 | 2.0 | 0.00 | 0.00 | 0.00 | 80 | 1008.7 |
| 20260507012605 | 42 | 317 | 0.0 | 2.0 | 0.00 | 0.00 | 0.00 | 81 | 1008.7 |
| 20260507012459 | 42 | 317 | 1.0 | 2.0 | 0.00 | 0.00 | 0.00 | 81 | 1008.7 |
| 20260507012357 | 42 | 317 | 2.0 | 2.0 | 0.00 | 0.00 | 0.00 | 81 | 1008.7 |
| 20260507012306 | 42 | 317 | 1.0 | 2.0 | 0.00 | 0.00 | 0.00 | 80 | 1008.7 |
| 20260507012159 | 42 | 317 | 0.0 | 3.0 | 0.00 | 0.00 | 0.00 | 79 | 1008.8 |
| 20260507012058 | 42 | 318 | 0.0 | 3.0 | 0.00 | 0.00 | 0.00 | 78 | 1008.7 |
| 20260507012000 | 42 | 317 | 1.0 | 3.0 | 0.00 | 0.00 | 0.00 | 78 | 1008.8 |
| 20260507011857 | 42 | 317 | 1.0 | 3.0 | 0.00 | 0.00 | 0.00 | 79 | 1008.7 |
| 20260507011758 | 42 | 317 | 0.0 | 3.0 | 0.00 | 0.00 | 0.00 | 80 | 1008.8 |
| 20260507011556 | 42 | 317 | 1.0 | 4.0 | 0.00 | 0.00 | 0.00 | 81 | 1008.8 |
| 20260507011458 | 42 | 317 | 1.0 | 4.0 | 0.00 | 0.00 | 0.00 | 80 | 1008.8 |
| 20260507011256 | 42 | 318 | 1.0 | 4.0 | 0.00 | 0.00 | 0.00 | 78 | 1008.8 |
| 20260507011159 | 42 | 318 | 2.0 | 4.0 | 0.00 | 0.00 | 0.00 | 79 | 1008.8 |
| 20260507011056 | 42 | 318 | 2.0 | 4.0 | 0.00 | 0.00 | 0.00 | 80 | 1008.8 |
| 20260507010959 | 42 | 318 | 2.0 | 4.0 | 0.00 | 0.00 | 0.00 | 79 | 1008.8 |
| 20260507010857 | 42 | 318 | 1.0 | 4.0 | 0.00 | 0.00 | 0.00 | 79 | 1008.7 |
| 20260507010757 | 42 | 318 | 2.0 | 4.0 | 0.00 | 0.00 | 0.00 | 79 | 1008.8 |
| 20260507010657 | 42 | 48 | 3.0 | 4.0 | 0.00 | 0.00 | 0.00 | 79 | 1008.8 |
| 20260507010558 | 42 | 51 | 0.0 | 5.0 | 0.00 | 0.00 | 0.00 | 79 | 1008.8 |
| 20260507010459 | 42 | 51 | 0.0 | 5.0 | 0.00 | 0.00 | 0.00 | 79 | 1008.8 |
| 20260507010257 | 41 | 51 | 1.0 | 5.0 | 0.00 | 0.00 | 0.00 | 80 | 1008.8 |
| 20260507010157 | 41 | 52 | 1.0 | 5.0 | 0.00 | 0.00 | 0.00 | 80 | 1008.8 |
| 20260507005959 | 41 | 51 | 1.0 | 5.0 | 0.00 | 0.00 | 0.00 | 80 | 1008.7 |
| 20260507005857 | 41 | 52 | 3.0 | 5.0 | 0.00 | 0.00 | 0.00 | 80 | 1008.7 |
| 20260507005757 | 41 | 52 | 4.0 | 5.0 | 0.00 | 0.00 | 0.00 | 80 | 1008.7 |
| 20260507005559 | 41 | 16 | 2.0 | 5.0 | 0.00 | 0.00 | 0.00 | 80 | 1008.7 |
| 20260507005459 | 41 | 347 | 2.0 | 4.0 | 0.00 | 0.00 | 0.00 | 80 | 1008.8 |
| 20260507005357 | 41 | 334 | 3.0 | 4.0 | 0.00 | 0.00 | 0.00 | 80 | 1008.8 |
| 20260507005257 | 41 | 314 | 3.0 | 4.0 | 0.00 | 0.00 | 0.00 | 80 | 1008.7 |
| 20260507004858 | 41 | 277 | 3.0 | 4.0 | 0.00 | 0.00 | 0.00 | 81 | 1008.7 |
| 20260507004756 | 41 | 284 | 1.0 | 7.0 | 0.00 | 0.00 | 0.00 | 80 | 1008.8 |
| 20260507004557 | 41 | 284 | 2.0 | 7.0 | 0.00 | 0.00 | 0.00 | 80 | 1008.7 |
| 20260507004459 | 41 | 284 | 3.0 | 7.0 | 0.00 | 0.00 | 0.00 | 80 | 1008.7 |
| 20260507004257 | 41 | 285 | 3.0 | 7.0 | 0.00 | 0.00 | 0.00 | 80 | 1008.6 |
| 20260507004159 | 41 | 285 | 0.0 | 7.0 | 0.00 | 0.00 | 0.00 | 80 | 1008.7 |
| 20260507004057 | 41 | 285 | 4.0 | 7.0 | 0.00 | 0.00 | 0.00 | 80 | 1008.7 |
| 20260507004000 | 41 | 284 | 6.0 | 7.0 | 0.00 | 0.00 | 0.00 | 80 | 1008.7 |
| 20260507003857 | 41 | 302 | 5.0 | 7.0 | 0.00 | 0.00 | 0.00 | 80 | 1008.7 |
| 20260507003757 | 41 | 292 | 3.0 | 7.0 | 0.00 | 0.00 | 0.00 | 79 | 1008.6 |
| 20260507003657 | 41 | 282 | 2.0 | 7.0 | 0.00 | 0.00 | 0.00 | 79 | 1008.7 |
| 20260507003557 | 41 | 281 | 2.0 | 7.0 | 0.00 | 0.00 | 0.00 | 79 | 1008.7 |
| 20260507003459 | 41 | 280 | 7.0 | 7.0 | 0.00 | 0.00 | 0.00 | 79 | 1008.6 |
| 20260507003357 | 41 | 286 | 3.0 | 7.0 | 0.00 | 0.00 | 0.00 | 79 | 1008.6 |
| 20260507003257 | 41 | 271 | 4.0 | 7.0 | 0.00 | 0.00 | 0.00 | 79 | 1008.6 |
| 20260507003157 | 41 | 260 | 2.0 | 7.0 | 0.00 | 0.00 | 0.00 | 78 | 1008.6 |
| 20260507003058 | 41 | 260 | 6.0 | 7.0 | 0.00 | 0.00 | 0.00 | 78 | 1008.6 |
| 20260507002758 | 42 | 302 | 5.0 | 7.0 | 0.00 | 0.00 | 0.00 | 78 | 1008.6 |
| 20260507002657 | 42 | 326 | 4.0 | 8.0 | 0.00 | 0.00 | 0.00 | 78 | 1008.6 |
| 20260507002557 | 42 | 275 | 1.0 | 8.0 | 0.00 | 0.00 | 0.00 | 78 | 1008.6 |
| 20260507002458 | 42 | 263 | 4.0 | 8.0 | 0.00 | 0.00 | 0.00 | 78 | 1008.6 |
| 20260507002357 | 42 | 284 | 6.0 | 8.0 | 0.00 | 0.00 | 0.00 | 79 | 1008.6 |
| 20260507002257 | 42 | 297 | 2.0 | 8.0 | 0.00 | 0.00 | 0.00 | 79 | 1008.6 |
| 20260507002158 | 41 | 294 | 1.0 | 8.0 | 0.00 | 0.00 | 0.00 | 79 | 1008.5 |
| 20260507002056 | 41 | 276 | 3.0 | 8.0 | 0.00 | 0.00 | 0.00 | 79 | 1008.5 |
| 20260507001959 | 41 | 304 | 3.0 | 8.0 | 0.00 | 0.00 | 0.00 | 79 | 1008.5 |
| 20260507001858 | 41 | 290 | 4.0 | 8.0 | 0.00 | 0.00 | 0.00 | 79 | 1008.5 |
| 20260507001657 | 41 | 310 | 4.0 | 6.0 | 0.00 | 0.00 | 0.00 | 80 | 1008.5 |
| 20260507001556 | 41 | 350 | 3.0 | 6.0 | 0.00 | 0.00 | 0.00 | 81 | 1008.5 |
| 20260507001459 | 41 | 336 | 3.0 | 7.0 | 0.00 | 0.00 | 0.00 | 81 | 1008.5 |
| 20260507001357 | 41 | 338 | 2.0 | 7.0 | 0.00 | 0.00 | 0.00 | 81 | 1008.5 |
| 20260507001257 | 41 | 340 | 4.0 | 8.0 | 0.00 | 0.00 | 0.00 | 81 | 1008.5 |
| 20260507001158 | 41 | 342 | 3.0 | 8.0 | 0.00 | 0.00 | 0.00 | 80 | 1008.5 |
| 20260507001056 | 41 | 342 | 3.0 | 8.0 | 0.00 | 0.00 | 0.00 | 80 | 1008.5 |
| 20260507000958 | 41 | 343 | 5.0 | 8.0 | 0.00 | 0.00 | 0.00 | 81 | 1008.5 |
| 20260507000857 | 41 | 342 | 3.0 | 8.0 | 0.00 | 0.00 | 0.00 | 81 | 1008.5 |
| 20260507000757 | 41 | 346 | 4.0 | 8.0 | 0.00 | 0.00 | 0.00 | 81 | 1008.5 |
| 20260507000657 | 41 | 317 | 4.0 | 8.0 | 0.00 | 0.00 | 0.00 | 81 | 1008.5 |
| 20260507000557 | 41 | 336 | 3.0 | 8.0 | 0.00 | 0.00 | 0.00 | 81 | 1008.5 |
| 20260507000458 | 41 | 330 | 6.0 | 9.0 | 0.00 | 0.00 | 0.00 | 81 | 1008.5 |
| 20260507000259 | 42 | 294 | 5.0 | 9.0 | 0.00 | 0.00 | 0.00 | 82 | 1008.5 |
| 20260507000157 | 41 | 298 | 3.0 | 9.0 | 0.00 | 0.00 | 0.00 | 82 | 1008.5 |
| 20260507000058 | 41 | 316 | 3.0 | 9.0 | 0.00 | 0.00 | 0.00 | 81 | 1008.4 |
| 20260507000003 | 41 | 315 | 2.0 | 9.0 | 0.00 | 0.00 | 0.00 | 81 | 1008.5 |
| 20260506235858 | 41 | 306 | 2.0 | 9.0 | 0.00 | 0.00 | 0.00 | 81 | 1008.5 |
| 20260506235758 | 41 | 315 | 5.0 | 9.0 | 0.00 | 0.00 | 0.00 | 81 | 1008.4 |
| 20260506235658 | 42 | 296 | 7.0 | 9.0 | 0.00 | 0.00 | 0.00 | 80 | 1008.5 |
| 20260506235500 | 42 | 316 | 4.0 | 6.0 | 0.00 | 0.00 | 0.00 | 80 | 1008.4 |
| 20260506235359 | 42 | 310 | 3.0 | 8.0 | 0.00 | 0.00 | 0.00 | 80 | 1008.4 |
| 20260506235258 | 42 | 311 | 4.0 | 8.0 | 0.00 | 0.00 | 0.00 | 80 | 1008.4 |
| 20260506235059 | 42 | 286 | 3.0 | 10.0 | 0.00 | 0.00 | 0.00 | 81 | 1008.4 |
| 20260506235004 | 42 | 273 | 2.0 | 10.0 | 0.00 | 0.00 | 0.00 | 80 | 1008.4 |
| 20260506234859 | 42 | 270 | 3.0 | 10.0 | 0.00 | 0.00 | 0.00 | 79 | 1008.4 |
| 20260506234758 | 42 | 271 | 3.0 | 10.0 | 0.00 | 0.00 | 0.00 | 79 | 1008.3 |
| 20260506234657 | 42 | 265 | 6.0 | 10.0 | 0.00 | 0.00 | 0.00 | 79 | 1008.4 |
| 20260506234601 | 42 | 286 | 1.0 | 10.0 | 0.00 | 0.00 | 0.00 | 79 | 1008.4 |
| 20260506234401 | 42 | 9 | 7.0 | 10.0 | 0.00 | 0.00 | 0.00 | 79 | 1008.3 |
| 20260506234259 | 42 | 340 | 9.0 | 10.0 | 0.00 | 0.00 | 0.00 | 79 | 1008.4 |
| 20260506234157 | 42 | 333 | 2.0 | 10.0 | 0.00 | 0.00 | 0.00 | 78 | 1008.3 |
| 20260506234059 | 42 | 333 | 8.0 | 10.0 | 0.00 | 0.00 | 0.00 | 78 | 1008.3 |
| 20260506234001 | 42 | 340 | 6.0 | 10.0 | 0.00 | 0.00 | 0.00 | 78 | 1008.3 |
| 20260506233858 | 42 | 312 | 8.0 | 10.0 | 0.00 | 0.00 | 0.00 | 78 | 1008.3 |
| 20260506233758 | 42 | 322 | 6.0 | 7.0 | 0.00 | 0.00 | 0.00 | 78 | 1008.3 |
| 20260506233658 | 42 | 294 | 2.0 | 7.0 | 0.00 | 0.00 | 0.00 | 78 | 1008.3 |
| 20260506233559 | 42 | 293 | 2.0 | 7.0 | 0.00 | 0.00 | 0.00 | 78 | 1008.2 |
| 20260506233500 | 42 | 293 | 1.0 | 7.0 | 0.00 | 0.00 | 0.00 | 78 | 1008.2 |
| 20260506233359 | 42 | 293 | 3.0 | 7.0 | 0.00 | 0.00 | 0.00 | 78 | 1008.2 |
| 20260506233057 | 42 | 306 | 5.0 | 11.0 | 0.00 | 0.00 | 0.00 | 79 | 1008.3 |
| 20260506233000 | 42 | 328 | 1.0 | 11.0 | 0.00 | 0.00 | 0.00 | 78 | 1008.2 |
| 20260506232858 | 42 | 328 | 3.0 | 11.0 | 0.00 | 0.00 | 0.00 | 78 | 1008.2 |
| 20260506232658 | 43 | 360 | 4.0 | 11.0 | 0.00 | 0.00 | 0.00 | 77 | 1008.2 |
| 20260506232559 | 43 | 292 | 4.0 | 11.0 | 0.00 | 0.00 | 0.00 | 76 | 1008.2 |
| 20260506232459 | 43 | 274 | 8.0 | 11.0 | 0.00 | 0.00 | 0.00 | 75 | 1008.2 |
| 20260506232359 | 43 | 340 | 4.0 | 11.0 | 0.00 | 0.00 | 0.00 | 74 | 1008.2 |
| 20260506232259 | 43 | 313 | 4.0 | 11.0 | 0.00 | 0.00 | 0.00 | 74 | 1008.2 |
| 20260506232159 | 43 | 338 | 5.0 | 11.0 | 0.00 | 0.00 | 0.00 | 72 | 1008.1 |
| 20260506232100 | 43 | 321 | 3.0 | 11.0 | 0.00 | 0.00 | 0.00 | 69 | 1008.1 |
| 20260506232001 | 44 | 342 | 8.0 | 11.0 | 0.00 | 0.00 | 0.00 | 69 | 1008.1 |
| 20260506231858 | 44 | 355 | 6.0 | 11.0 | 0.00 | 0.00 | 0.00 | 69 | 1008.1 |
| 20260506231758 | 44 | 327 | 9.0 | 11.0 | 0.00 | 0.00 | 0.00 | 68 | 1008.0 |
| 20260506231657 | 44 | 303 | 3.0 | 11.0 | 0.00 | 0.00 | 0.00 | 68 | 1008.1 |
| 20260506231558 | 44 | 301 | 7.0 | 11.0 | 0.00 | 0.00 | 0.00 | 66 | 1008.1 |
| 20260506231504 | 45 | 317 | 10.0 | 11.0 | 0.00 | 0.00 | 0.00 | 65 | 1008.0 |
| 20260506231359 | 45 | 259 | 2.0 | 11.0 | 0.00 | 0.00 | 0.00 | 65 | 1008.0 |
| 20260506231258 | 45 | 266 | 11.0 | 11.0 | 0.00 | 0.00 | 0.00 | 65 | 1008.0 |
| 20260506231158 | 45 | 302 | 5.0 | 8.0 | 0.00 | 0.00 | 0.00 | 65 | 1008.1 |
| 20260506231003 | 46 | 327 | 1.0 | 8.0 | 0.00 | 0.00 | 0.00 | 60 | 1008.0 |
| 20260506230858 | 46 | 336 | 6.0 | 8.0 | 0.00 | 0.00 | 0.00 | 56 | 1008.0 |
| 20260506230759 | 46 | 153 | 2.0 | 6.0 | 0.00 | 0.00 | 0.00 | 55 | 1008.0 |
| 20260506230558 | 46 | 181 | 2.0 | 6.0 | 0.00 | 0.00 | 0.00 | 55 | 1008.0 |
| 20260506230500 | 46 | 159 | 5.0 | 10.0 | 0.00 | 0.00 | 0.00 | 55 | 1008.0 |
| 20260506230358 | 46 | 141 | 7.0 | 10.0 | 0.00 | 0.00 | 0.00 | 56 | 1007.9 |
| 20260506230258 | 46 | 130 | 1.0 | 10.0 | 0.00 | 0.00 | 0.00 | 55 | 1007.9 |
| 20260506230157 | 46 | 130 | 2.0 | 10.0 | 0.00 | 0.00 | 0.00 | 55 | 1008.0 |
| 20260506230058 | 46 | 130 | 5.0 | 10.0 | 0.00 | 0.00 | 0.00 | 56 | 1007.9 |
| 20260506225858 | 46 | 126 | 2.0 | 10.0 | 0.00 | 0.00 | 0.00 | 55 | 1007.9 |
| 20260506225757 | 46 | 130 | 5.0 | 11.0 | 0.00 | 0.00 | 0.00 | 56 | 1007.9 |
| 20260506225557 | 46 | 113 | 4.0 | 11.0 | 0.00 | 0.00 | 0.00 | 56 | 1007.9 |
| 20260506225458 | 46 | 103 | 7.0 | 11.0 | 0.00 | 0.00 | 0.00 | 55 | 1007.9 |
| 20260506225357 | 46 | 125 | 5.0 | 12.0 | 0.00 | 0.00 | 0.00 | 56 | 1007.8 |
| 20260506225257 | 46 | 123 | 5.0 | 12.0 | 0.00 | 0.00 | 0.00 | 57 | 1007.8 |
| 20260506225156 | 46 | 135 | 3.0 | 12.0 | 0.00 | 0.00 | 0.00 | 56 | 1007.9 |
| 20260506225057 | 46 | 121 | 4.0 | 12.0 | 0.00 | 0.00 | 0.00 | 56 | 1007.9 |
| 20260506224958 | 46 | 113 | 8.0 | 12.0 | 0.00 | 0.00 | 0.00 | 56 | 1007.8 |
| 20260506224857 | 46 | 110 | 8.0 | 12.0 | 0.00 | 0.00 | 0.00 | 57 | 1007.8 |
| 20260506224757 | 46 | 84 | 2.0 | 12.0 | 0.00 | 0.00 | 0.00 | 57 | 1007.9 |
| 20260506224556 | 46 | 53 | 5.0 | 12.0 | 0.00 | 0.00 | 0.00 | 56 | 1007.8 |
| 20260506224459 | 46 | 119 | 8.0 | 12.0 | 0.00 | 0.00 | 0.00 | 57 | 1007.8 |
| 20260506224357 | 46 | 100 | 7.0 | 12.0 | 0.00 | 0.00 | 0.00 | 56 | 1007.8 |
| 20260506224257 | 47 | 119 | 10.0 | 12.0 | 0.00 | 0.00 | 0.00 | 57 | 1007.8 |
| 20260506224157 | 47 | 103 | 10.0 | 11.0 | 0.00 | 0.00 | 0.00 | 57 | 1007.8 |
| 20260506224057 | 47 | 40 | 6.0 | 11.0 | 0.00 | 0.00 | 0.00 | 57 | 1007.8 |
| 20260506224000 | 47 | 125 | 8.0 | 11.0 | 0.00 | 0.00 | 0.00 | 57 | 1007.8 |
| 20260506223857 | 46 | 138 | 3.0 | 6.0 | 0.00 | 0.00 | 0.00 | 58 | 1007.7 |
| 20260506223756 | 46 | 208 | 1.0 | 4.0 | 0.00 | 0.00 | 0.00 | 58 | 1007.7 |
| 20260506223657 | 46 | 207 | 2.0 | 4.0 | 0.00 | 0.00 | 0.00 | 58 | 1007.8 |
| 20260506223556 | 46 | 207 | 0.0 | 4.0 | 0.00 | 0.00 | 0.00 | 58 | 1007.7 |
| 20260506223357 | 46 | 207 | 1.0 | 4.0 | 0.00 | 0.00 | 0.00 | 60 | 1007.7 |
| 20260506223257 | 46 | 207 | 1.0 | 4.0 | 0.00 | 0.00 | 0.00 | 57 | 1007.7 |
| 20260506222958 | 46 | 191 | 4.0 | 4.0 | 0.00 | 0.00 | 0.00 | 58 | 1007.7 |
| 20260506222858 | 46 | 191 | 2.0 | 4.0 | 0.00 | 0.00 | 0.00 | 58 | 1007.8 |
| 20260506222657 | 46 | 191 | 2.0 | 5.0 | 0.00 | 0.00 | 0.00 | 58 | 1007.7 |
| 20260506222558 | 46 | 191 | 0.0 | 6.0 | 0.00 | 0.00 | 0.00 | 58 | 1007.7 |
| 20260506222459 | 46 | 191 | 4.0 | 6.0 | 0.00 | 0.00 | 0.00 | 57 | 1007.7 |
| 20260506222257 | 45 | 191 | 2.0 | 8.0 | 0.00 | 0.00 | 0.00 | 59 | 1007.7 |
| 20260506222157 | 45 | 191 | 0.0 | 8.0 | 0.00 | 0.00 | 0.00 | 59 | 1007.7 |
| 20260506221959 | 45 | 191 | 1.0 | 8.0 | 0.00 | 0.00 | 0.00 | 58 | 1007.7 |
| 20260506221856 | 45 | 191 | 5.0 | 8.0 | 0.00 | 0.00 | 0.00 | 57 | 1007.7 |
| 20260506221757 | 45 | 203 | 1.0 | 8.0 | 0.00 | 0.00 | 0.00 | 57 | 1007.7 |
| 20260506221659 | 45 | 221 | 3.0 | 8.0 | 0.00 | 0.00 | 0.00 | 58 | 1007.7 |
| 20260506221558 | 45 | 166 | 4.0 | 8.0 | 0.00 | 0.00 | 0.00 | 58 | 1007.7 |
| 20260506221500 | 45 | 154 | 6.0 | 6.0 | 0.00 | 0.00 | 0.00 | 60 | 1007.7 |
| 20260506221257 | 45 | 223 | 2.0 | 8.0 | 0.00 | 0.00 | 0.00 | 61 | 1007.6 |
| 20260506221156 | 45 | 288 | 1.0 | 8.0 | 0.00 | 0.00 | 0.00 | 60 | 1007.6 |
| 20260506221057 | 45 | 296 | 2.0 | 8.0 | 0.00 | 0.00 | 0.00 | 62 | 1007.7 |
| 20260506220959 | 45 | 301 | 4.0 | 8.0 | 0.00 | 0.00 | 0.00 | 64 | 1007.6 |
| 20260506220857 | 45 | 251 | 0.0 | 8.0 | 0.00 | 0.00 | 0.00 | 64 | 1007.7 |
| 20260506220757 | 45 | 251 | 2.0 | 8.0 | 0.00 | 0.00 | 0.00 | 64 | 1007.6 |
| 20260506220657 | 45 | 275 | 3.0 | 8.0 | 0.00 | 0.00 | 0.00 | 64 | 1007.6 |
| 20260506220557 | 45 | 321 | 2.0 | 8.0 | 0.00 | 0.00 | 0.00 | 63 | 1007.6 |
| 20260506220459 | 45 | 5 | 2.0 | 5.0 | 0.00 | 0.00 | 0.00 | 64 | 1007.6 |
| 20260506220258 | 45 | 355 | 3.0 | 5.0 | 0.00 | 0.00 | 0.00 | 64 | 1007.6 |
| 20260506220157 | 45 | 259 | 3.0 | 3.0 | 0.00 | 0.00 | 0.00 | 65 | 1007.6 |
| 20260506220058 | 45 | 259 | 1.0 | 4.0 | 0.00 | 0.00 | 0.00 | 65 | 1007.6 |
| 20260506215856 | 45 | 259 | 1.0 | 4.0 | 0.00 | 0.00 | 0.00 | 65 | 1007.6 |
| 20260506215657 | 45 | 259 | 0.0 | 4.0 | 0.00 | 0.00 | 0.00 | 65 | 1007.6 |
| 20260506215556 | 45 | 259 | 0.0 | 4.0 | 0.00 | 0.00 | 0.00 | 66 | 1007.6 |
| 20260506215458 | 45 | 259 | 1.0 | 5.0 | 0.00 | 0.00 | 0.00 | 64 | 1007.6 |
| 20260506215257 | 45 | 248 | 3.0 | 5.0 | 0.00 | 0.00 | 0.00 | 64 | 1007.6 |
| 20260506215158 | 45 | 240 | 0.0 | 5.0 | 0.00 | 0.00 | 0.00 | 64 | 1007.6 |
| 20260506215057 | 45 | 240 | 2.0 | 6.0 | 0.00 | 0.00 | 0.00 | 64 | 1007.6 |
| 20260506214958 | 45 | 240 | 1.0 | 6.0 | 0.00 | 0.00 | 0.00 | 64 | 1007.6 |
| 20260506214857 | 45 | 240 | 0.0 | 6.0 | 0.00 | 0.00 | 0.00 | 64 | 1007.6 |
| 20260506214757 | 45 | 240 | 2.0 | 6.0 | 0.00 | 0.00 | 0.00 | 63 | 1007.6 |
| 20260506214657 | 45 | 240 | 3.0 | 6.0 | 0.00 | 0.00 | 0.00 | 64 | 1007.5 |
| 20260506214557 | 45 | 237 | 4.0 | 6.0 | 0.00 | 0.00 | 0.00 | 64 | 1007.6 |
| 20260506214500 | 45 | 190 | 1.0 | 6.0 | 0.00 | 0.00 | 0.00 | 64 | 1007.5 |
| 20260506214358 | 45 | 190 | 1.0 | 6.0 | 0.00 | 0.00 | 0.00 | 63 | 1007.5 |
| 20260506214258 | 45 | 190 | 2.0 | 6.0 | 0.00 | 0.00 | 0.00 | 64 | 1007.5 |
| 20260506214157 | 45 | 324 | 1.0 | 6.0 | 0.00 | 0.00 | 0.00 | 65 | 1007.5 |
| 20260506213959 | 45 | 324 | 0.0 | 11.0 | 0.00 | 0.00 | 0.00 | 64 | 1007.5 |
| 20260506213857 | 45 | 324 | 1.0 | 11.0 | 0.00 | 0.00 | 0.00 | 64 | 1007.5 |
| 20260506213756 | 45 | 324 | 1.0 | 11.0 | 0.00 | 0.00 | 0.00 | 63 | 1007.5 |
| 20260506213657 | 45 | 324 | 3.0 | 11.0 | 0.00 | 0.00 | 0.00 | 64 | 1007.5 |
| 20260506213556 | 45 | 32 | 2.0 | 11.0 | 0.00 | 0.00 | 0.00 | 64 | 1007.5 |
| 20260506213459 | 45 | 52 | 4.0 | 11.0 | 0.00 | 0.00 | 0.00 | 64 | 1007.5 |
| 20260506213357 | 45 | 26 | 3.0 | 11.0 | 0.00 | 0.00 | 0.00 | 63 | 1007.4 |
| 20260506213257 | 45 | 52 | 2.0 | 11.0 | 0.00 | 0.00 | 0.00 | 63 | 1007.4 |
| 20260506213157 | 45 | 119 | 4.0 | 11.0 | 0.00 | 0.00 | 0.00 | 63 | 1007.4 |
| 20260506213057 | 44 | 58 | 7.0 | 11.0 | 0.00 | 0.00 | 0.00 | 64 | 1007.4 |
| 20260506212859 | 44 | 16 | 2.0 | 8.0 | 0.00 | 0.00 | 0.00 | 68 | 1007.4 |
| 20260506212757 | 44 | 9 | 4.0 | 8.0 | 0.00 | 0.00 | 0.00 | 67 | 1007.4 |
| 20260506212657 | 44 | 22 | 4.0 | 8.0 | 0.00 | 0.00 | 0.00 | 67 | 1007.4 |
| 20260506212459 | 44 | 314 | 1.0 | 8.0 | 0.00 | 0.00 | 0.00 | 71 | 1007.4 |
| 20260506212356 | 44 | 334 | 5.0 | 8.0 | 0.00 | 0.00 | 0.00 | 70 | 1007.4 |
| 20260506212256 | 44 | 336 | 6.0 | 8.0 | 0.00 | 0.00 | 0.00 | 70 | 1007.4 |
| 20260506212157 | 44 | 338 | 4.0 | 8.0 | 0.00 | 0.00 | 0.00 | 70 | 1007.4 |
| 20260506211959 | 44 | 351 | 2.0 | 8.0 | 0.00 | 0.00 | 0.00 | 69 | 1007.4 |
| 20260506211857 | 44 | 290 | 2.0 | 8.0 | 0.00 | 0.00 | 0.00 | 70 | 1007.4 |
| 20260506211757 | 44 | 294 | 2.0 | 8.0 | 0.00 | 0.00 | 0.00 | 69 | 1007.4 |
| 20260506211657 | 44 | 296 | 4.0 | 9.0 | 0.00 | 0.00 | 0.00 | 69 | 1007.4 |
| 20260506211559 | 44 | 301 | 5.0 | 9.0 | 0.00 | 0.00 | 0.00 | 69 | 1007.4 |
| 20260506211458 | 44 | 325 | 3.0 | 9.0 | 0.00 | 0.00 | 0.00 | 70 | 1007.4 |
| 20260506211357 | 44 | 280 | 4.0 | 9.0 | 0.00 | 0.00 | 0.00 | 70 | 1007.4 |
| 20260506211257 | 44 | 288 | 3.0 | 9.0 | 0.00 | 0.00 | 0.00 | 71 | 1007.4 |
| 20260506211157 | 44 | 288 | 7.0 | 9.0 | 0.00 | 0.00 | 0.00 | 70 | 1007.4 |
| 20260506211057 | 44 | 284 | 4.0 | 9.0 | 0.00 | 0.00 | 0.00 | 70 | 1007.4 |
| 20260506210757 | 44 | 344 | 1.0 | 9.0 | 0.00 | 0.00 | 0.00 | 71 | 1007.3 |
| 20260506210657 | 44 | 287 | 1.0 | 9.0 | 0.00 | 0.00 | 0.00 | 71 | 1007.3 |
| 20260506210557 | 44 | 289 | 2.0 | 9.0 | 0.00 | 0.00 | 0.00 | 71 | 1007.3 |
| 20260506210459 | 44 | 306 | 5.0 | 9.0 | 0.00 | 0.00 | 0.00 | 71 | 1007.3 |
| 20260506210357 | 44 | 282 | 3.0 | 9.0 | 0.00 | 0.00 | 0.00 | 73 | 1007.3 |
| 20260506210257 | 44 | 351 | 3.0 | 9.0 | 0.00 | 0.00 | 0.00 | 73 | 1007.3 |
| 20260506210158 | 44 | 314 | 3.0 | 9.0 | 0.00 | 0.00 | 0.00 | 72 | 1007.3 |
| 20260506210057 | 44 | 268 | 4.0 | 9.0 | 0.00 | 0.00 | 0.00 | 72 | 1007.2 |
| 20260506210000 | 44 | 340 | 3.0 | 9.0 | 0.00 | 0.00 | 0.00 | 72 | 1007.2 |
| 20260506205756 | 44 | 320 | 5.0 | 8.0 | 0.00 | 0.00 | 0.00 | 72 | 1007.2 |
| 20260506205657 | 44 | 325 | 5.0 | 8.0 | 0.00 | 0.00 | 0.00 | 72 | 1007.2 |
| 20260506205558 | 44 | 267 | 2.0 | 8.0 | 0.00 | 0.00 | 0.00 | 71 | 1007.3 |
| 20260506205459 | 44 | 290 | 5.0 | 8.0 | 0.00 | 0.00 | 0.00 | 71 | 1007.3 |
| 20260506205257 | 44 | 318 | 4.0 | 8.0 | 0.00 | 0.00 | 0.00 | 71 | 1007.2 |
| 20260506205157 | 44 | 336 | 3.0 | 8.0 | 0.00 | 0.00 | 0.00 | 70 | 1007.2 |
| 20260506204958 | 44 | 327 | 4.0 | 8.0 | 0.00 | 0.00 | 0.00 | 71 | 1007.2 |
| 20260506204856 | 44 | 292 | 3.0 | 8.0 | 0.00 | 0.00 | 0.00 | 71 | 1007.2 |
| 20260506204756 | 43 | 234 | 2.0 | 8.0 | 0.00 | 0.00 | 0.00 | 71 | 1007.2 |
| 20260506204657 | 43 | 233 | 3.0 | 8.0 | 0.00 | 0.00 | 0.00 | 70 | 1007.2 |
| 20260506204557 | 44 | 234 | 4.0 | 8.0 | 0.00 | 0.00 | 0.00 | 71 | 1007.2 |
| 20260506204500 | 44 | 232 | 6.0 | 8.0 | 0.00 | 0.00 | 0.00 | 71 | 1007.2 |
| 20260506204358 | 44 | 273 | 4.0 | 7.0 | 0.00 | 0.00 | 0.00 | 72 | 1007.1 |
| 20260506204256 | 43 | 273 | 1.0 | 8.0 | 0.00 | 0.00 | 0.00 | 71 | 1007.2 |
| 20260506204157 | 44 | 290 | 2.0 | 10.0 | 0.00 | 0.00 | 0.00 | 71 | 1007.2 |
| 20260506204056 | 43 | 283 | 4.0 | 10.0 | 0.00 | 0.00 | 0.00 | 71 | 1007.2 |
| 20260506204000 | 44 | 281 | 3.0 | 10.0 | 0.00 | 0.00 | 0.00 | 72 | 1007.1 |
| 20260506203858 | 43 | 286 | 2.0 | 10.0 | 0.00 | 0.00 | 0.00 | 73 | 1007.1 |
| 20260506203757 | 43 | 283 | 3.0 | 10.0 | 0.00 | 0.00 | 0.00 | 72 | 1007.1 |
| 20260506203657 | 43 | 333 | 3.0 | 10.0 | 0.00 | 0.00 | 0.00 | 72 | 1007.1 |
| 20260506203459 | 44 | 333 | 4.0 | 10.0 | 0.00 | 0.00 | 0.00 | 72 | 1007.1 |
| 20260506203358 | 44 | 315 | 8.0 | 10.0 | 0.00 | 0.00 | 0.00 | 72 | 1007.1 |
| 20260506203257 | 44 | 319 | 5.0 | 10.0 | 0.00 | 0.00 | 0.00 | 73 | 1007.1 |
| 20260506203158 | 44 | 302 | 2.0 | 10.0 | 0.00 | 0.00 | 0.00 | 73 | 1007.1 |
| 20260506203000 | 44 | 301 | 7.0 | 11.0 | 0.00 | 0.00 | 0.00 | 73 | 1007.0 |
| 20260506202858 | 44 | 275 | 4.0 | 11.0 | 0.00 | 0.00 | 0.00 | 73 | 1007.0 |
| 20260506202757 | 44 | 269 | 4.0 | 11.0 | 0.00 | 0.00 | 0.00 | 74 | 1007.0 |
| 20260506202657 | 44 | 298 | 5.0 | 11.0 | 0.00 | 0.00 | 0.00 | 74 | 1007.0 |
| 20260506202558 | 43 | 276 | 2.0 | 11.0 | 0.00 | 0.00 | 0.00 | 74 | 1007.0 |
| 20260506202459 | 43 | 273 | 3.0 | 11.0 | 0.00 | 0.00 | 0.00 | 74 | 1007.0 |
| 20260506202357 | 43 | 296 | 5.0 | 11.0 | 0.00 | 0.00 | 0.00 | 75 | 1007.0 |
| 20260506202257 | 43 | 290 | 5.0 | 11.0 | 0.00 | 0.00 | 0.00 | 75 | 1006.9 |
| 20260506202158 | 43 | 304 | 8.0 | 11.0 | 0.00 | 0.00 | 0.00 | 74 | 1006.9 |
| 20260506202057 | 43 | 243 | 9.0 | 11.0 | 0.00 | 0.00 | 0.00 | 74 | 1006.9 |
| 20260506201857 | 43 | 271 | 7.0 | 10.0 | 0.00 | 0.00 | 0.00 | 74 | 1006.9 |
| 20260506201757 | 43 | 253 | 10.0 | 10.0 | 0.00 | 0.00 | 0.00 | 74 | 1006.8 |
| 20260506201657 | 43 | 238 | 3.0 | 9.0 | 0.00 | 0.00 | 0.00 | 73 | 1006.9 |
| 20260506201557 | 43 | 238 | 4.0 | 9.0 | 0.00 | 0.00 | 0.00 | 74 | 1006.9 |
| 20260506201458 | 43 | 271 | 3.0 | 9.0 | 0.00 | 0.00 | 0.00 | 74 | 1006.9 |
| 20260506201356 | 43 | 274 | 6.0 | 9.0 | 0.00 | 0.00 | 0.00 | 74 | 1007.0 |
| 20260506201256 | 43 | 300 | 2.0 | 9.0 | 0.00 | 0.00 | 0.00 | 74 | 1006.9 |
| 20260506201057 | 43 | 282 | 6.0 | 9.0 | 0.00 | 0.00 | 0.00 | 74 | 1006.9 |
| 20260506200959 | 43 | 294 | 5.0 | 9.0 | 0.00 | 0.00 | 0.00 | 73 | 1006.9 |
| 20260506200858 | 43 | 282 | 9.0 | 9.0 | 0.00 | 0.00 | 0.00 | 73 | 1006.9 |
| 20260506200756 | 43 | 280 | 7.0 | 8.0 | 0.00 | 0.00 | 0.00 | 73 | 1006.8 |
| 20260506200557 | 44 | 355 | 6.0 | 8.0 | 0.00 | 0.00 | 0.00 | 72 | 1006.8 |
| 20260506200459 | 44 | 323 | 6.0 | 8.0 | 0.00 | 0.00 | 0.00 | 73 | 1006.8 |
| 20260506200357 | 44 | 329 | 4.0 | 8.0 | 0.00 | 0.00 | 0.00 | 73 | 1006.8 |
| 20260506200256 | 44 | 323 | 6.0 | 6.0 | 0.00 | 0.00 | 0.00 | 73 | 1006.8 |
| 20260506200157 | 44 | 300 | 3.0 | 6.0 | 0.00 | 0.00 | 0.00 | 73 | 1006.8 |
| 20260506200057 | 44 | 294 | 3.0 | 5.0 | 0.00 | 0.00 | 0.00 | 73 | 1006.7 |
| 20260506195959 | 44 | 311 | 3.0 | 5.0 | 0.00 | 0.00 | 0.00 | 72 | 1006.7 |
| 20260506195856 | 44 | 309 | 3.0 | 5.0 | 0.00 | 0.00 | 0.00 | 73 | 1006.8 |
| 20260506195657 | 43 | 259 | 1.0 | 8.0 | 0.00 | 0.00 | 0.00 | 72 | 1006.8 |
| 20260506195558 | 43 | 347 | 0.0 | 8.0 | 0.00 | 0.00 | 0.00 | 72 | 1006.8 |
| 20260506195458 | 43 | 347 | 0.0 | 8.0 | 0.00 | 0.00 | 0.00 | 72 | 1006.8 |
| 20260506195158 | 43 | 347 | 2.0 | 8.0 | 0.00 | 0.00 | 0.00 | 72 | 1006.7 |
| 20260506195057 | 43 | 350 | 2.0 | 8.0 | 0.00 | 0.00 | 0.00 | 73 | 1006.7 |
| 20260506195000 | 43 | 349 | 5.0 | 8.0 | 0.00 | 0.00 | 0.00 | 74 | 1006.8 |
| 20260506194857 | 43 | 298 | 3.0 | 8.0 | 0.00 | 0.00 | 0.00 | 73 | 1006.7 |
| 20260506194757 | 43 | 334 | 5.0 | 8.0 | 0.00 | 0.00 | 0.00 | 73 | 1006.7 |
| 20260506194500 | 43 | 32 | 4.0 | 8.0 | 0.00 | 0.00 | 0.00 | 74 | 1006.7 |
| 20260506194356 | 43 | 290 | 2.0 | 8.0 | 0.00 | 0.00 | 0.00 | 74 | 1006.7 |
| 20260506194258 | 43 | 290 | 3.0 | 8.0 | 0.00 | 0.00 | 0.00 | 75 | 1006.7 |
| 20260506194157 | 43 | 323 | 2.0 | 8.0 | 0.00 | 0.00 | 0.00 | 74 | 1006.7 |
| 20260506194056 | 43 | 340 | 8.0 | 8.0 | 0.00 | 0.00 | 0.00 | 74 | 1006.7 |
| 20260506193959 | 43 | 327 | 3.0 | 7.0 | 0.00 | 0.00 | 0.00 | 73 | 1006.7 |
| 20260506193758 | 42 | 350 | 1.0 | 6.0 | 0.00 | 0.00 | 0.00 | 73 | 1006.8 |
| 20260506193557 | 42 | 321 | 2.0 | 7.0 | 0.00 | 0.00 | 0.00 | 74 | 1006.7 |
| 20260506193458 | 42 | 290 | 2.0 | 7.0 | 0.00 | 0.00 | 0.00 | 74 | 1006.7 |
| 20260506193358 | 42 | 290 | 3.0 | 7.0 | 0.00 | 0.00 | 0.00 | 74 | 1006.7 |